DL9MFL-6 Weather Reports


time (UTC)temp
F
wind
direction
speed
knots
gust
knots
rain 1hr
in
rain 24hr
in
rain mn
in
humidity
%
barometer
mb
20260902113507 74 290 2.6 5.2 0.00 0.00 0.00 55 1019.3
20260902113422 74 271 2.6 5.2 0.00 0.00 0.00 55 1019.4
20260902113418 74 275 2.6 5.2 0.00 0.00 0.00 55 1019.3
20260902113414 74 252 2.6 5.2 0.00 0.00 0.00 56 1019.3
20260902113107 74 272 2.6 5.2 0.00 0.00 0.00 56 1019.3
20260902113008 74 340 2.6 4.3 0.00 0.00 0.00 57 1019.3
20260902112908 73 311 2.6 6.1 0.00 0.00 0.00 56 1019.4
20260902112807 73 217 2.6 6.1 0.00 0.00 0.00 56 1019.4
20260902112703 73 254 2.6 6.1 0.00 0.00 0.00 55 1019.4
20260902112603 73 311 2.6 6.1 0.00 0.00 0.00 57 1019.4
20260902112503 73 263 2.6 6.1 0.00 0.00 0.00 55 1019.4
20260902112403 73 269 2.6 6.1 0.00 0.00 0.00 56 1019.4
20260902112305 73 249 2.6 6.1 0.00 0.00 0.00 58 1019.4
20260902112204 73 248 2.6 6.1 0.00 0.00 0.00 58 1019.4
20260902112103 73 249 2.6 6.1 0.00 0.00 0.00 58 1019.4
20260902112001 73 210 2.6 6.1 0.00 0.00 0.00 56 1019.4
20260902111901 73 203 2.6 6.1 0.00 0.00 0.00 57 1019.4
20260902111801 72 208 2.6 6.1 0.00 0.00 0.00 58 1019.4
20260902111701 72 217 1.7 6.1 0.00 0.00 0.00 60 1019.4
20260902111601 72 246 1.7 5.2 0.00 0.00 0.00 61 1019.5
20260902111501 72 286 1.7 5.2 0.00 0.00 0.00 61 1019.4
20260902111401 72 259 1.7 5.2 0.00 0.00 0.00 60 1019.5
20260902111301 72 177 1.7 5.2 0.00 0.00 0.00 61 1019.4
20260902111201 72 177 1.7 5.2 0.00 0.00 0.00 59 1019.4
20260902111102 72 151 1.7 5.2 0.00 0.00 0.00 59 1019.4
20260902111001 72 202 1.7 5.2 0.00 0.00 0.00 59 1019.4
20260902110921 72 230 0.9 4.3 0.00 0.00 0.00 63 1019.5
20260902110917 72 202 1.7 5.2 0.00 0.00 0.00 59 1019.5
20260902110913 72 230 0.9 4.3 0.00 0.00 0.00 60 1019.5
20260902110651 72 230 0.9 4.3 0.00 0.00 0.00 61 1019.5
20260902110550 72 244 0.9 3.5 0.00 0.00 0.00 62 1019.5
20260902110447 72 243 0.9 3.5 0.00 0.00 0.00 65 1019.4
20260902110345 72 39 0.9 2.6 0.00 0.00 0.00 63 1019.5
20260902110244 72 39 0.9 2.6 0.00 0.00 0.00 63 1019.5
20260902110201 72 39 0.9 2.6 0.00 0.00 0.00 63 1019.5
20260902110143 72 39 0.9 2.6 0.00 0.00 0.00 65 1019.5
20260902110043 72 294 0.9 3.5 0.00 0.00 0.00 64 1019.5
20260902105941 72 294 1.7 4.3 0.00 0.00 0.00 64 1019.7
20260902105920 71 319 1.7 5.2 0.00 0.00 0.00 64 1019.7
20260902105915 71 319 1.7 5.2 0.00 0.00 0.00 64 1019.5
20260902105911 71 319 1.7 5.2 0.00 0.00 0.00 62 1019.7
20260902105638 71 319 1.7 5.2 0.00 0.00 0.00 66 1019.7
20260902105538 71 319 1.7 5.2 0.00 0.00 0.00 65 1019.7
20260902105436 71 319 1.7 5.2 0.00 0.00 0.00 64 1019.7
20260902105334 71 319 1.7 5.2 0.00 0.00 0.00 64 1019.7
20260902105231 71 319 1.7 5.2 0.00 0.00 0.00 64 1019.7
20260902105201 71 319 1.7 5.2 0.00 0.00 0.00 64 1019.8
20260902105131 71 319 1.7 5.2 0.00 0.00 0.00 64 1019.8
20260902105031 71 319 1.7 5.2 0.00 0.00 0.00 63 1019.7
20260902104931 71 331 1.7 5.2 0.00 0.00 0.00 63 1019.7
20260902104829 71 318 0.9 4.3 0.00 0.00 0.00 65 1019.8
20260902104729 71 318 1.7 4.3 0.00 0.00 0.00 64 1019.8
20260902104700 71 318 1.7 4.3 0.00 0.00 0.00 66 1019.8
20260902104630 71 318 1.7 4.3 0.00 0.00 0.00 66 1019.8
20260902104530 71 319 1.7 4.3 0.00 0.00 0.00 64 1019.8
20260902104430 71 321 1.7 4.3 0.00 0.00 0.00 65 1019.7
20260902104329 71 316 1.7 4.3 0.00 0.00 0.00 64 1019.8
20260902104229 71 302 0.9 4.3 0.00 0.00 0.00 65 1019.8
20260902104201 71 0 1.7 4.3 0.00 0.00 0.00 66 1019.8
20260902104129 71 0 1.7 4.3 0.00 0.00 0.00 66 1019.8
20260902104029 71 0 1.7 4.3 0.00 0.00 0.00 65 1019.8
20260902103929 71 0 1.7 4.3 0.00 0.00 0.00 64 1019.8
20260902103828 71 0 2.6 4.3 0.00 0.00 0.00 65 1019.9
20260902103723 71 5 2.6 4.3 0.00 0.00 0.00 65 1019.9
20260902103701 71 5 2.6 4.3 0.00 0.00 0.00 65 1019.8
20260902103623 71 5 2.6 4.3 0.00 0.00 0.00 65 1019.8
20260902103524 71 13 1.7 4.3 0.00 0.00 0.00 66 1019.8
20260902103423 71 13 1.7 4.3 0.00 0.00 0.00 65 1019.8
20260902103323 71 330 1.7 4.3 0.00 0.00 0.00 64 1019.9
20260902103204 71 330 1.7 4.3 0.00 0.00 0.00 65 1019.8
20260902103200 71 325 1.7 4.3 0.00 0.00 0.00 65 1020.0
20260902103150 71 330 1.7 4.3 0.00 0.00 0.00 66 1019.9
20260902103146 71 338 1.7 4.3 0.00 0.00 0.00 65 1019.9
20260902102921 71 355 1.7 4.3 0.00 0.00 0.00 65 1019.9
20260902102917 71 319 1.7 4.3 0.00 0.00 0.00 65 1019.9
20260902102913 71 319 1.7 4.3 0.00 0.00 0.00 65 1020.0
20260902102611 70 325 1.7 4.3 0.00 0.00 0.00 65 1019.9
20260902102512 70 325 1.7 4.3 0.00 0.00 0.00 65 1020.0
20260902102411 70 336 1.7 4.3 0.00 0.00 0.00 64 1020.0
20260902102311 70 337 1.7 4.3 0.00 0.00 0.00 66 1020.0
20260902102200 70 336 1.7 4.3 0.00 0.00 0.00 67 1020.0
20260902102105 70 319 1.7 4.3 0.00 0.00 0.00 67 1020.0
20260902102005 70 304 1.7 4.3 0.00 0.00 0.00 67 1020.0
20260902101903 70 272 1.7 4.3 0.00 0.00 0.00 66 1020.0
20260902101801 70 309 1.7 4.3 0.00 0.00 0.00 65 1020.0
20260902101701 70 309 1.7 4.3 0.00 0.00 0.00 66 1020.0
20260902101601 70 308 1.7 4.3 0.00 0.00 0.00 66 1020.0
20260902101502 70 308 1.7 4.3 0.00 0.00 0.00 67 1020.0
20260902101401 70 308 1.7 4.3 0.00 0.00 0.00 67 1020.0
20260902101301 70 308 1.7 4.3 0.00 0.00 0.00 67 1020.0
20260902101201 70 296 1.7 4.3 0.00 0.00 0.00 68 1020.0
20260902101102 69 297 1.7 4.3 0.00 0.00 0.00 68 1020.0
20260902101001 69 297 1.7 3.5 0.00 0.00 0.00 67 1020.1
20260902100922 69 303 0.9 3.5 0.00 0.00 0.00 67 1020.1
20260902100917 69 301 1.7 3.5 0.00 0.00 0.00 67 1020.0
20260902100913 69 301 0.9 3.5 0.00 0.00 0.00 68 1020.0
20260902100904 69 301 0.9 3.5 0.00 0.00 0.00 67 1020.0
20260902100644 69 301 0.9 3.5 0.00 0.00 0.00 67 1020.0
20260902100640 69 301 0.9 3.5 0.00 0.00 0.00 67 1020.0
20260902100420 69 300 0.9 3.5 0.00 0.00 0.00 67 1020.0
20260902100415 69 303 0.9 3.5 0.00 0.00 0.00 67 1020.1
20260902100411 69 303 0.9 3.5 0.00 0.00 0.00 67 1020.1
20260902100101 69 294 0.9 2.6 0.00 0.00 0.00 68 1020.1
20260902100001 69 294 1.7 3.5 0.00 0.00 0.00 66 1020.1
20260902095901 69 294 1.7 3.5 0.00 0.00 0.00 66 1020.1
20260902095801 69 294 1.7 3.5 0.00 0.00 0.00 66 1020.1
20260902095701 69 294 1.7 3.5 0.00 0.00 0.00 68 1020.1
20260902095601 69 294 1.7 3.5 0.00 0.00 0.00 67 1020.0
20260902095500 69 291 1.7 3.5 0.00 0.00 0.00 68 1020.1
20260902095427 69 325 1.7 3.5 0.00 0.00 0.00 68 1020.1
20260902095419 69 291 1.7 3.5 0.00 0.00 0.00 67 1020.0
20260902095415 69 316 1.7 3.5 0.00 0.00 0.00 66 1020.1
20260902095159 69 325 1.7 3.5 0.00 0.00 0.00 68 1020.1
20260902095059 69 325 1.7 3.5 0.00 0.00 0.00 68 1020.1
20260902094959 69 315 1.7 3.5 0.00 0.00 0.00 67 1020.1
20260902094859 69 318 0.9 3.5 0.00 0.00 0.00 67 1020.1
20260902094757 69 21 0.9 3.5 0.00 0.00 0.00 68 1020.1
20260902094701 69 21 1.7 3.5 0.00 0.00 0.00 67 1020.1
20260902094657 69 21 1.7 3.5 0.00 0.00 0.00 67 1020.1
20260902094557 69 21 1.7 3.5 0.00 0.00 0.00 67 1020.1
20260902094454 69 21 1.7 3.5 0.00 0.00 0.00 67 1020.1
20260902094353 68 20 1.7 3.5 0.00 0.00 0.00 66 1020.1
20260902094252 68 20 1.7 3.5 0.00 0.00 0.00 66 1020.1
20260902094202 68 346 0.9 3.5 0.00 0.00 0.00 67 1020.1
20260902094151 68 346 0.9 3.5 0.00 0.00 0.00 67 1020.1
20260902094049 68 329 0.9 3.5 0.00 0.00 0.00 68 1020.1
20260902093949 68 329 0.9 3.5 0.00 0.00 0.00 69 1020.1
20260902093847 68 307 0.9 3.5 0.00 0.00 0.00 69 1020.1
20260902093747 68 307 0.9 3.5 0.00 0.00 0.00 69 1020.1
20260902093701 68 307 0.9 3.5 0.00 0.00 0.00 69 1020.2
20260902093645 68 307 0.9 3.5 0.00 0.00 0.00 69 1020.2
20260902093545 68 306 0.9 2.6 0.00 0.00 0.00 69 1020.1
20260902093444 68 307 0.9 2.6 0.00 0.00 0.00 69 1020.1
20260902093415 68 307 0.9 2.6 0.00 0.00 0.00 69 1020.1
20260902093411 68 307 0.9 2.6 0.00 0.00 0.00 69 1020.1
20260902093139 68 307 0.9 2.6 0.00 0.00 0.00 69 1020.1
20260902093037 68 307 0.9 2.6 0.00 0.00 0.00 69 1020.1
20260902092937 68 307 0.9 2.6 0.00 0.00 0.00 69 1020.1
20260902092835 68 307 0.9 2.6 0.00 0.00 0.00 68 1020.1
20260902092735 68 307 0.9 2.6 0.00 0.00 0.00 67 1020.2
20260902092701 68 307 0.9 2.6 0.00 0.00 0.00 67 1020.2
20260902092633 68 307 0.9 2.6 0.00 0.00 0.00 67 1020.2
20260902092531 68 307 0.9 2.6 0.00 0.00 0.00 68 1020.2
20260902092431 68 307 0.9 2.6 0.00 0.00 0.00 68 1020.2
20260902092331 68 307 0.9 2.6 0.00 0.00 0.00 68 1020.2
20260902092231 68 308 0.9 2.6 0.00 0.00 0.00 69 1020.2
20260902092200 68 308 0.9 2.6 0.00 0.00 0.00 69 1020.1
20260902092132 68 307 0.9 2.6 0.00 0.00 0.00 69 1020.1
20260902092031 68 307 0.9 2.6 0.00 0.00 0.00 70 1020.1
20260902091931 68 307 0.9 2.6 0.00 0.00 0.00 70 1020.1
20260902091829 68 307 0.9 2.6 0.00 0.00 0.00 71 1020.1
20260902091702 68 308 0.9 2.6 0.00 0.00 0.00 71 1020.1
20260902091629 68 308 0.9 2.6 0.00 0.00 0.00 71 1020.1
20260902091529 67 308 0.9 2.6 0.00 0.00 0.00 72 1020.2
20260902091429 67 308 0.9 2.6 0.00 0.00 0.00 70 1020.2
20260902091328 67 308 0.9 2.6 0.00 0.00 0.00 72 1020.2
20260902091229 67 308 0.9 2.6 0.00 0.00 0.00 72 1020.2
20260902091201 67 308 0.9 2.6 0.00 0.00 0.00 71 1020.2
20260902091129 67 308 0.9 2.6 0.00 0.00 0.00 71 1020.2
20260902091029 67 308 0.9 2.6 0.00 0.00 0.00 73 1020.2
20260902090929 67 308 0.9 2.6 0.00 0.00 0.00 72 1020.2
20260902090829 67 308 0.9 2.6 0.00 0.00 0.00 72 1020.2
20260902090729 67 308 0.9 2.6 0.00 0.00 0.00 71 1020.2
20260902090701 67 307 0.9 2.6 0.00 0.00 0.00 72 1020.2
20260902090629 67 308 0.9 2.6 0.00 0.00 0.00 72 1020.2
20260902090529 67 307 0.9 2.6 0.00 0.00 0.00 73 1020.2
20260902090433 67 307 0.9 2.6 0.00 0.00 0.00 72 1020.1
20260902090329 67 307 1.7 2.6 0.00 0.00 0.00 73 1020.1
20260902090201 67 307 1.7 2.6 0.00 0.00 0.00 73 1020.2
20260902090129 67 310 1.7 2.6 0.00 0.00 0.00 73 1020.2
20260902090028 67 311 1.7 2.6 0.00 0.00 0.00 73 1020.2
20260902085928 67 312 0.9 2.6 0.00 0.00 0.00 73 1020.1
20260902085829 67 312 0.9 2.6 0.00 0.00 0.00 73 1020.1
20260902085701 67 312 0.9 2.6 0.00 0.00 0.00 72 1020.1
20260902085628 67 311 0.9 2.6 0.00 0.00 0.00 72 1020.1
20260902085528 67 311 0.9 2.6 0.00 0.00 0.00 72 1020.1
20260902085428 67 311 0.9 2.6 0.00 0.00 0.00 73 1020.0
20260902085328 67 312 0.9 2.6 0.00 0.00 0.00 74 1020.1
20260902085201 66 311 0.0 2.6 0.00 0.00 0.00 73 1020.0
20260902085128 66 312 0.0 2.6 0.00 0.00 0.00 73 1020.0
20260902085028 66 312 0.0 0.9 0.00 0.00 0.00 75 1020.0
20260902084929 66 312 0.0 0.9 0.00 0.00 0.00 74 1020.1
20260902084829 66 311 0.0 1.7 0.00 0.00 0.00 72 1020.1
20260902084729 66 312 0.0 1.7 0.00 0.00 0.00 73 1020.1
20260902084702 66 312 0.9 2.6 0.00 0.00 0.00 73 1020.1
20260902084629 66 312 0.9 2.6 0.00 0.00 0.00 74 1020.1
20260902084529 66 312 0.9 2.6 0.00 0.00 0.00 74 1020.1
20260902084429 66 312 0.9 3.5 0.00 0.00 0.00 75 1020.0
20260902084417 66 312 0.9 3.5 0.00 0.00 0.00 76 1020.0
20260902084413 66 312 0.9 3.5 0.00 0.00 0.00 74 1020.0
20260902084129 66 312 0.9 3.5 0.00 0.00 0.00 74 1020.0
20260902084029 66 312 0.9 3.5 0.00 0.00 0.00 75 1020.0
20260902083929 65 312 0.9 3.5 0.00 0.00 0.00 74 1020.1
20260902083823 65 312 0.9 3.5 0.00 0.00 0.00 74 1020.1
20260902083722 65 312 0.9 3.5 0.00 0.00 0.00 75 1020.1
20260902083701 65 311 0.9 3.5 0.00 0.00 0.00 75 1020.1
20260902083623 65 312 0.9 3.5 0.00 0.00 0.00 74 1020.1
20260902083523 65 311 0.9 3.5 0.00 0.00 0.00 74 1020.1
20260902083423 65 311 0.9 3.5 0.00 0.00 0.00 74 1020.1
20260902083415 65 311 1.7 3.5 0.00 0.00 0.00 74 1020.1
20260902083411 65 311 1.7 3.5 0.00 0.00 0.00 74 1020.1
20260902083117 65 311 1.7 3.5 0.00 0.00 0.00 74 1020.1
20260902083016 65 311 1.7 3.5 0.00 0.00 0.00 74 1020.1
20260902082916 65 311 1.7 3.5 0.00 0.00 0.00 74 1020.1
20260902082811 65 311 1.7 3.5 0.00 0.00 0.00 75 1020.1
20260902082711 65 311 1.7 3.5 0.00 0.00 0.00 75 1020.1
20260902082700 65 313 1.7 3.5 0.00 0.00 0.00 75 1020.1
20260902082611 65 313 0.9 3.5 0.00 0.00 0.00 75 1020.1
20260902082511 64 313 0.9 2.6 0.00 0.00 0.00 75 1020.1
20260902082411 64 211 0.9 2.6 0.00 0.00 0.00 76 1020.1
20260902082309 64 211 0.9 2.6 0.00 0.00 0.00 76 1020.1
20260902082201 64 210 0.9 2.6 0.00 0.00 0.00 76 1020.1
20260902082105 64 156 0.9 2.6 0.00 0.00 0.00 77 1020.1
20260902082002 64 154 0.9 2.6 0.00 0.00 0.00 77 1020.1
20260902081926 64 189 0.9 3.5 0.00 0.00 0.00 76 1020.1
20260902081918 64 189 0.9 3.5 0.00 0.00 0.00 76 1020.0
20260902081914 64 186 0.9 3.5 0.00 0.00 0.00 77 1020.0
20260902081601 64 186 0.9 3.5 0.00 0.00 0.00 78 1020.0
20260902081500 64 186 0.9 3.5 0.00 0.00 0.00 78 1020.0
20260902081402 63 186 0.9 3.5 0.00 0.00 0.00 77 1020.0
20260902081302 63 186 0.9 3.5 0.00 0.00 0.00 77 1020.0
20260902081200 63 186 0.9 3.5 0.00 0.00 0.00 77 1020.1
20260902081101 63 178 0.0 3.5 0.00 0.00 0.00 77 1020.0
20260902081001 63 178 0.0 3.5 0.00 0.00 0.00 79 1020.0
20260902080901 63 119 0.0 1.7 0.00 0.00 0.00 79 1020.0
20260902080801 63 119 0.0 1.7 0.00 0.00 0.00 79 1020.0
20260902080701 63 119 0.0 1.7 0.00 0.00 0.00 79 1020.0
20260902080601 62 119 0.0 1.7 0.00 0.00 0.00 80 1020.0
20260902080501 62 119 0.0 1.7 0.00 0.00 0.00 80 1019.9
20260902080401 62 119 0.0 1.7 0.00 0.00 0.00 80 1020.0
20260902080301 62 119 0.0 0.9 0.00 0.00 0.00 81 1019.9
20260902080201 62 119 0.0 3.5 0.00 0.00 0.00 81 1019.9
20260902080100 62 119 0.9 3.5 0.00 0.00 0.00 81 1019.9
20260902080000 62 119 0.9 3.5 0.00 0.00 0.00 81 1019.9
20260902075921 62 119 0.9 3.5 0.00 0.00 0.00 81 1019.8
20260902075914 62 119 0.9 3.5 0.00 0.00 0.00 81 1019.9
20260902075910 62 119 0.9 3.5 0.00 0.00 0.00 82 1019.8
20260902075558 62 119 0.9 3.5 0.00 0.00 0.00 82 1019.8
20260902075456 61 119 0.9 3.5 0.00 0.00 0.00 82 1019.8
20260902075357 61 119 0.9 3.5 0.00 0.00 0.00 82 1019.9
20260902075257 61 119 0.9 3.5 0.00 0.00 0.00 82 1019.8
20260902075152 61 119 0.0 2.6 0.00 0.00 0.00 82 1019.8
20260902075057 61 117 0.0 2.6 0.00 0.00 0.00 82 1019.8
20260902074955 61 116 0.0 1.7 0.00 0.00 0.00 81 1019.8
20260902074909 60 116 0.9 1.7 0.00 0.00 0.00 81 1019.8
20260902074901 60 115 0.9 1.7 0.00 0.00 0.00 81 1019.8
20260902074857 60 116 0.9 1.7 0.00 0.00 0.00 81 1019.8
20260902074555 60 116 0.9 1.7 0.00 0.00 0.00 81 1019.8
20260902074453 60 115 0.9 1.7 0.00 0.00 0.00 81 1019.8
20260902074404 60 115 0.0 1.7 0.00 0.00 0.00 82 1019.9
20260902074356 60 115 0.0 1.7 0.00 0.00 0.00 83 1019.9
20260902074352 60 115 0.0 1.7 0.00 0.00 0.00 82 1019.9
20260902074048 60 115 0.0 1.7 0.00 0.00 0.00 82 1019.9
20260902073947 59 115 0.0 1.7 0.00 0.00 0.00 82 1019.9
20260902073847 59 114 0.0 1.7 0.00 0.00 0.00 83 1019.9
20260902073745 59 114 0.0 1.7 0.00 0.00 0.00 84 1019.9
20260902073635 59 114 0.0 0.9 0.00 0.00 0.00 83 1019.9
20260902073545 59 114 0.0 0.9 0.00 0.00 0.00 84 1019.9
20260902073445 58 114 0.0 0.9 0.00 0.00 0.00 85 1019.9
20260902073343 58 113 0.0 0.0 0.00 0.00 0.00 85 1020.0
20260902073243 58 113 0.0 0.0 0.00 0.00 0.00 85 1020.0
20260902073143 58 113 0.0 0.0 0.00 0.00 0.00 85 1019.9
20260902073135 58 113 0.0 0.0 0.00 0.00 0.00 86 1019.9
20260902073041 58 113 0.0 0.0 0.00 0.00 0.00 85 1019.9
20260902072939 58 113 0.0 0.0 0.00 0.00 0.00 86 1019.9
20260902072839 58 113 0.0 0.0 0.00 0.00 0.00 86 1019.9
20260902072737 58 113 0.0 0.0 0.00 0.00 0.00 86 1019.9
20260902072632 58 113 0.0 0.0 0.00 0.00 0.00 86 1019.9
20260902072535 58 113 0.0 0.0 0.00 0.00 0.00 86 1019.9
20260902072433 58 113 0.0 0.0 0.00 0.00 0.00 86 1019.9
20260902072336 58 113 0.0 0.0 0.00 0.00 0.00 86 1019.9
20260902072231 58 113 0.0 0.0 0.00 0.00 0.00 86 1019.9
20260902072130 58 113 0.0 0.0 0.00 0.00 0.00 86 1020.0
20260902072029 57 113 0.0 0.0 0.00 0.00 0.00 87 1019.9
20260902071930 57 113 0.0 0.0 0.00 0.00 0.00 87 1020.0
20260902071829 57 113 0.0 0.9 0.00 0.00 0.00 87 1020.0
20260902071729 57 113 0.0 1.7 0.00 0.00 0.00 88 1020.1
20260902071628 57 113 0.0 1.7 0.00 0.00 0.00 88 1020.1
20260902071529 57 113 0.0 1.7 0.00 0.00 0.00 88 1020.1
20260902071428 57 113 0.0 1.7 0.00 0.00 0.00 88 1020.1
20260902071354 57 113 0.0 1.7 0.00 0.00 0.00 88 1020.1
20260902071346 57 113 0.0 1.7 0.00 0.00 0.00 88 1020.0
20260902071342 57 113 0.0 1.7 0.00 0.00 0.00 88 1020.0
20260902071028 57 113 0.0 1.7 0.00 0.00 0.00 88 1020.0
20260902070929 57 113 0.0 1.7 0.00 0.00 0.00 88 1020.0
20260902070830 57 113 0.0 1.7 0.00 0.00 0.00 89 1020.0
20260902070729 57 113 0.0 1.7 0.00 0.00 0.00 89 1020.0
20260902070629 56 113 0.0 1.7 0.00 0.00 0.00 89 1020.0
20260902070529 56 113 0.0 1.7 0.00 0.00 0.00 89 1020.0
20260902070429 56 113 0.0 1.7 0.00 0.00 0.00 89 1020.0
20260902070329 56 113 0.0 1.7 0.00 0.00 0.00 88 1019.9
20260902070229 56 113 0.0 1.7 0.00 0.00 0.00 89 1019.9
20260902070129 56 113 0.0 0.9 0.00 0.00 0.00 89 1019.9
20260902070028 56 113 0.0 1.7 0.00 0.00 0.00 89 1020.0
20260902065928 56 113 0.0 1.7 0.00 0.00 0.00 89 1020.0
20260902065828 56 113 0.0 1.7 0.00 0.00 0.00 89 1019.9
20260902065728 56 113 0.0 1.7 0.00 0.00 0.00 89 1020.0
20260902065628 56 113 0.0 1.7 0.00 0.00 0.00 89 1020.0
20260902065528 56 113 0.0 1.7 0.00 0.00 0.00 89 1020.0
20260902065428 56 113 0.0 1.7 0.00 0.00 0.00 88 1020.0
20260902065328 56 113 0.0 1.7 0.00 0.00 0.00 88 1020.0
20260902065229 56 113 0.0 1.7 0.00 0.00 0.00 89 1019.9
20260902065129 56 113 0.0 1.7 0.00 0.00 0.00 88 1019.9
20260902065029 56 113 0.0 1.7 0.00 0.00 0.00 89 1019.9
20260902064929 56 113 0.0 0.9 0.00 0.00 0.00 89 1019.9
20260902064829 56 113 0.0 0.9 0.00 0.00 0.00 89 1019.9
20260902064729 55 113 0.0 0.9 0.00 0.00 0.00 89 1019.9
20260902064629 55 113 0.0 0.9 0.00 0.00 0.00 89 1019.9
20260902064529 55 113 0.0 0.9 0.00 0.00 0.00 89 1019.9
20260902064429 55 113 0.0 0.9 0.00 0.00 0.00 89 1019.9
20260902064329 55 113 0.0 0.9 0.00 0.00 0.00 89 1020.0
20260902064229 55 113 0.0 0.9 0.00 0.00 0.00 90 1019.9
20260902064129 55 113 0.0 0.9 0.00 0.00 0.00 90 1019.9
20260902064028 55 113 0.0 0.9 0.00 0.00 0.00 90 1019.9
20260902063929 55 113 0.0 0.9 0.00 0.00 0.00 90 1019.9
20260902063829 55 113 0.0 1.7 0.00 0.00 0.00 90 1019.9
20260902063729 55 113 0.0 1.7 0.00 0.00 0.00 90 1019.9
20260902063629 55 113 0.0 1.7 0.00 0.00 0.00 90 1019.9
20260902063529 55 113 0.0 1.7 0.00 0.00 0.00 90 1019.9
20260902063429 55 113 0.0 1.7 0.00 0.00 0.00 90 1019.9
20260902063348 53 113 0.0 2.6 0.00 0.00 0.00 90 1020.0
20260902063343 54 113 0.0 1.7 0.00 0.00 0.00 90 1019.9
20260902063335 54 113 0.0 1.7 0.00 0.00 0.00 90 1020.0
20260902063327 54 113 0.0 1.7 0.00 0.00 0.00 90 1020.0
20260902063112 54 113 0.0 1.7 0.00 0.00 0.00 90 1019.9
20260902063108 54 113 0.0 1.7 0.00 0.00 0.00 90 1020.0
20260902062852 54 113 0.0 1.7 0.00 0.00 0.00 89 1020.0
20260902062844 54 113 0.0 2.6 0.00 0.00 0.00 89 1020.0
20260902062836 54 113 0.0 2.6 0.00 0.00 0.00 90 1020.0
20260902062615 54 113 0.0 2.6 0.00 0.00 0.00 90 1020.0
20260902062611 54 113 0.0 2.6 0.00 0.00 0.00 90 1020.0
20260902062353 54 113 0.0 2.6 0.00 0.00 0.00 90 1020.0
20260902062345 53 113 0.0 2.6 0.00 0.00 0.00 90 1020.0
20260902062341 53 113 0.0 2.6 0.00 0.00 0.00 90 1020.0
20260902062029 53 113 0.0 2.6 0.00 0.00 0.00 90 1020.0
20260902061929 53 113 0.9 2.6 0.00 0.00 0.00 91 1020.0
20260902061829 53 113 0.9 2.6 0.00 0.00 0.00 90 1020.0
20260902061729 53 113 0.9 2.6 0.00 0.00 0.00 90 1019.9
20260902061629 53 113 0.9 2.6 0.00 0.00 0.00 90 1020.0
20260902061528 53 113 0.9 2.6 0.00 0.00 0.00 90 1020.0
20260902061428 53 113 0.9 2.6 0.00 0.00 0.00 90 1020.0
20260902061329 53 112 0.9 2.6 0.00 0.00 0.00 90 1019.9
20260902061229 53 112 0.9 2.6 0.00 0.00 0.00 90 1019.9
20260902061129 53 112 0.9 2.6 0.00 0.00 0.00 90 1019.9
20260902061029 53 112 0.9 2.6 0.00 0.00 0.00 90 1019.9
20260902060929 53 112 0.9 2.6 0.00 0.00 0.00 91 1019.9
20260902060852 52 113 0.9 3.5 0.00 0.00 0.00 91 1019.9
20260902060844 52 113 0.9 3.5 0.00 0.00 0.00 91 1019.8
20260902060840 52 113 0.9 3.5 0.00 0.00 0.00 91 1019.9
20260902060528 52 112 0.9 3.5 0.00 0.00 0.00 91 1019.9
20260902060428 52 112 0.9 3.5 0.00 0.00 0.00 91 1019.9
20260902060329 52 112 0.9 3.5 0.00 0.00 0.00 91 1019.9
20260902060229 52 112 0.9 3.5 0.00 0.00 0.00 91 1019.9
20260902060129 52 113 0.9 3.5 0.00 0.00 0.00 91 1019.9
20260902060029 52 113 0.9 3.5 0.00 0.00 0.00 91 1019.9
20260902055928 52 113 0.9 3.5 0.00 0.00 0.00 91 1019.9
20260902055828 52 113 0.0 2.6 0.00 0.00 0.00 92 1019.9
20260902055728 52 113 0.9 2.6 0.00 0.00 0.00 92 1020.0
20260902055628 52 113 0.9 2.6 0.00 0.00 0.00 92 1019.9
20260902055529 51 113 0.9 2.6 0.00 0.00 0.00 92 1019.9
20260902055429 51 113 0.9 2.6 0.00 0.00 0.00 92 1019.9
20260902055353 51 113 0.9 2.6 0.00 0.00 0.00 93 1019.9
20260902055345 51 113 0.9 2.6 0.00 0.00 0.00 93 1019.9
20260902055341 51 116 0.9 2.6 0.00 0.00 0.00 93 1019.9
20260902055029 51 117 0.9 2.6 0.00 0.00 0.00 93 1019.9
20260902054929 51 116 0.0 2.6 0.00 0.00 0.00 93 1019.9
20260902054852 51 116 0.9 2.6 0.00 0.00 0.00 93 1019.9
20260902054844 51 116 0.9 2.6 0.00 0.00 0.00 93 1019.9
20260902054840 51 116 0.0 2.6 0.00 0.00 0.00 93 1019.9
20260902054529 51 116 0.0 1.7 0.00 0.00 0.00 93 1019.9
20260902054428 51 116 0.0 1.7 0.00 0.00 0.00 93 1019.9
20260902054329 51 116 0.0 1.7 0.00 0.00 0.00 93 1019.9
20260902054229 50 116 0.0 1.7 0.00 0.00 0.00 93 1019.9
20260902054128 50 116 0.0 1.7 0.00 0.00 0.00 92 1019.9
20260902054028 50 116 0.0 1.7 0.00 0.00 0.00 92 1019.9
20260902053928 50 116 0.0 1.7 0.00 0.00 0.00 92 1019.9
20260902053829 50 116 0.0 1.7 0.00 0.00 0.00 92 1019.9
20260902053732 50 116 0.0 1.7 0.00 0.00 0.00 92 1019.9
20260902053628 50 116 0.0 1.7 0.00 0.00 0.00 92 1019.9
20260902053622 50 115 0.0 1.7 0.00 0.00 0.00 92 1019.9
20260902053522 50 116 0.0 1.7 0.00 0.00 0.00 92 1019.8
20260902053423 50 116 0.0 1.7 0.00 0.00 0.00 92 1019.8
20260902053321 50 116 0.0 1.7 0.00 0.00 0.00 92 1019.8
20260902053225 50 116 0.0 1.7 0.00 0.00 0.00 92 1019.8
20260902053129 50 116 0.0 1.7 0.00 0.00 0.00 92 1019.8
20260902053118 50 116 0.9 1.7 0.00 0.00 0.00 92 1019.8
20260902053018 50 116 0.9 1.7 0.00 0.00 0.00 91 1019.8
20260902052919 50 116 0.9 1.7 0.00 0.00 0.00 91 1019.8
20260902052817 50 116 0.9 1.7 0.00 0.00 0.00 91 1019.8
20260902052719 50 116 0.9 1.7 0.00 0.00 0.00 91 1019.8
20260902052613 50 116 0.9 1.7 0.00 0.00 0.00 91 1019.8
20260902052513 50 116 0.9 1.7 0.00 0.00 0.00 92 1019.8
20260902052410 50 116 0.9 1.7 0.00 0.00 0.00 92 1019.8
20260902052310 50 116 0.9 1.7 0.00 0.00 0.00 92 1019.8
20260902052215 50 116 0.9 1.7 0.00 0.00 0.00 92 1019.8
20260902052109 50 116 0.9 1.7 0.00 0.00 0.00 92 1019.8
20260902052008 50 115 0.9 1.7 0.00 0.00 0.00 92 1019.7
20260902051908 50 116 0.9 1.7 0.00 0.00 0.00 92 1019.8
20260902051808 50 115 0.9 1.7 0.00 0.00 0.00 92 1019.8
20260902051706 50 116 0.9 1.7 0.00 0.00 0.00 92 1019.8
20260902051606 50 116 0.9 1.7 0.00 0.00 0.00 92 1019.8
20260902051504 50 116 0.9 1.7 0.00 0.00 0.00 92 1019.8
20260902051404 50 116 0.9 1.7 0.00 0.00 0.00 92 1019.7
20260902051304 50 115 0.9 1.7 0.00 0.00 0.00 92 1019.7
20260902051204 50 115 0.9 1.7 0.00 0.00 0.00 92 1019.7
20260902051113 50 115 0.9 1.7 0.00 0.00 0.00 92 1019.7
20260902051109 50 115 0.9 1.7 0.00 0.00 0.00 92 1019.7
20260902051105 50 115 0.9 1.7 0.00 0.00 0.00 92 1019.7
20260902051101 50 115 0.9 1.7 0.00 0.00 0.00 92 1019.7
20260902050846 50 115 0.9 1.7 0.00 0.00 0.00 92 1019.7
20260902050841 50 115 0.9 1.7 0.00 0.00 0.00 92 1019.7
20260902050603 50 115 0.9 1.7 0.00 0.00 0.00 92 1019.5
20260902050503 50 115 0.9 1.7 0.00 0.00 0.00 92 1019.5
20260902050403 50 115 0.9 1.7 0.00 0.00 0.00 92 1019.7
20260902050303 50 115 0.9 1.7 0.00 0.00 0.00 92 1019.7
20260902050205 49 115 0.9 1.7 0.00 0.00 0.00 92 1019.5
20260902050127 49 115 0.9 1.7 0.00 0.00 0.00 92 1019.5
20260902050004 50 115 0.9 1.7 0.00 0.00 0.00 92 1019.5
20260902045902 49 115 0.9 1.7 0.00 0.00 0.00 92 1019.5
20260902045802 50 115 0.9 1.7 0.00 0.00 0.00 92 1019.4
20260902045703 50 115 0.9 1.7 0.00 0.00 0.00 92 1019.5
20260902045602 50 115 0.9 1.7 0.00 0.00 0.00 92 1019.4
20260902045502 50 115 0.9 1.7 0.00 0.00 0.00 92 1019.4
20260902045401 50 115 0.9 1.7 0.00 0.00 0.00 92 1019.4
20260902045301 49 115 0.9 1.7 0.00 0.00 0.00 92 1019.4
20260902045201 50 115 0.9 1.7 0.00 0.00 0.00 92 1019.4
20260902045101 50 115 0.9 1.7 0.00 0.00 0.00 92 1019.4
20260902044959 49 115 0.9 1.7 0.00 0.00 0.00 92 1019.5
20260902044859 50 115 0.9 1.7 0.00 0.00 0.00 92 1019.5
20260902044845 49 116 0.9 1.7 0.00 0.00 0.00 92 1019.7
20260902044841 49 115 0.9 1.7 0.00 0.00 0.00 92 1019.5
20260902044837 49 115 0.9 1.7 0.00 0.00 0.00 92 1019.5
20260902044830 50 115 0.9 1.7 0.00 0.00 0.00 92 1019.5
20260902044608 49 116 0.9 1.7 0.00 0.00 0.00 92 1019.5
20260902044604 49 116 0.9 1.7 0.00 0.00 0.00 92 1019.7
20260902044600 49 116 0.9 1.7 0.00 0.00 0.00 92 1019.7
20260902044342 49 116 0.9 1.7 0.00 0.00 0.00 92 1019.7
20260902044338 49 116 0.9 1.7 0.00 0.00 0.00 92 1019.7
20260902044058 50 116 0.9 1.7 0.00 0.00 0.00 92 1019.7
20260902043959 49 116 0.9 1.7 0.00 0.00 0.00 92 1019.7
20260902043859 50 116 0.9 1.7 0.00 0.00 0.00 92 1019.7
20260902043841 50 116 0.9 1.7 0.00 0.00 0.00 92 1019.7
20260902043837 50 116 0.9 1.7 0.00 0.00 0.00 92 1019.7
20260902043559 50 116 0.9 1.7 0.00 0.00 0.00 92 1019.7
20260902043459 50 116 0.9 1.7 0.00 0.00 0.00 92 1019.7
20260902043359 50 116 0.9 1.7 0.00 0.00 0.00 91 1019.7
20260902043259 50 116 0.9 1.7 0.00 0.00 0.00 91 1019.5
20260902043158 50 116 0.9 1.7 0.00 0.00 0.00 92 1019.5
20260902043123 50 116 0.9 1.7 0.00 0.00 0.00 92 1019.5
20260902043054 50 116 0.9 1.7 0.00 0.00 0.00 92 1019.5
20260902042954 50 116 0.9 1.7 0.00 0.00 0.00 92 1019.5
20260902042854 50 116 0.9 1.7 0.00 0.00 0.00 92 1019.5
20260902042754 50 116 0.9 1.7 0.00 0.00 0.00 92 1019.5
20260902042654 50 115 0.9 1.7 0.00 0.00 0.00 92 1019.5
20260902042622 50 115 0.9 1.7 0.00 0.00 0.00 92 1019.5
20260902042555 50 115 0.9 1.7 0.00 0.00 0.00 92 1019.5
20260902042455 50 115 0.0 2.6 0.00 0.00 0.00 92 1019.5
20260902042355 50 115 0.0 2.6 0.00 0.00 0.00 92 1019.5
20260902042340 50 115 0.0 2.6 0.00 0.00 0.00 92 1019.5
20260902042336 50 115 0.0 2.6 0.00 0.00 0.00 92 1019.5
20260902042054 50 115 0.0 2.6 0.00 0.00 0.00 92 1019.5
20260902041954 50 115 0.0 2.6 0.00 0.00 0.00 92 1019.5
20260902041854 50 115 0.0 2.6 0.00 0.00 0.00 92 1019.7
20260902041754 50 115 0.0 2.6 0.00 0.00 0.00 91 1019.5
20260902041654 50 115 0.0 2.6 0.00 0.00 0.00 91 1019.7
20260902041622 50 115 0.0 2.6 0.00 0.00 0.00 92 1019.5
20260902041555 50 115 0.0 2.6 0.00 0.00 0.00 91 1019.5
20260902041454 50 114 0.0 0.0 0.00 0.00 0.00 91 1019.5
20260902041354 50 113 0.0 0.0 0.00 0.00 0.00 91 1019.5
20260902041254 50 113 0.0 0.9 0.00 0.00 0.00 91 1019.5
20260902041123 50 113 0.0 0.9 0.00 0.00 0.00 91 1019.5
20260902041050 50 113 0.0 0.9 0.00 0.00 0.00 91 1019.5
20260902040950 50 113 0.0 0.9 0.00 0.00 0.00 91 1019.4
20260902040850 50 113 0.0 0.9 0.00 0.00 0.00 91 1019.4
20260902040751 50 113 0.0 0.9 0.00 0.00 0.00 91 1019.4
20260902040626 50 113 0.0 0.9 0.00 0.00 0.00 91 1019.4
20260902040550 50 113 0.0 0.9 0.00 0.00 0.00 91 1019.4
20260902040451 50 113 0.0 0.9 0.00 0.00 0.00 92 1019.4
20260902040351 50 113 0.0 0.9 0.00 0.00 0.00 92 1019.4
20260902040345 50 113 0.0 1.7 0.00 0.00 0.00 91 1019.5
20260902040338 50 112 0.0 0.9 0.00 0.00 0.00 92 1019.4
20260902040334 50 113 0.0 1.7 0.00 0.00 0.00 92 1019.4
20260902040051 50 113 0.0 1.7 0.00 0.00 0.00 91 1019.5
20260902035951 50 113 0.0 1.7 0.00 0.00 0.00 91 1019.5
20260902035851 50 112 0.0 1.7 0.00 0.00 0.00 91 1019.5
20260902035844 50 112 0.0 1.7 0.00 0.00 0.00 91 1019.4
20260902035837 50 112 0.0 1.7 0.00 0.00 0.00 91 1019.5
20260902035833 50 112 0.0 1.7 0.00 0.00 0.00 91 1019.5
20260902035551 50 112 0.0 1.7 0.00 0.00 0.00 91 1019.4
20260902035451 50 112 0.0 1.7 0.00 0.00 0.00 91 1019.4
20260902035350 50 112 0.0 1.7 0.00 0.00 0.00 91 1019.5
20260902035246 50 112 0.0 1.7 0.00 0.00 0.00 91 1019.5
20260902035123 50 112 0.0 1.7 0.00 0.00 0.00 91 1019.5
20260902035046 50 112 0.0 1.7 0.00 0.00 0.00 91 1019.5
20260902034946 50 112 0.0 0.0 0.00 0.00 0.00 91 1019.5
20260902034846 50 112 0.0 0.0 0.00 0.00 0.00 91 1019.5
20260902034746 50 112 0.0 0.0 0.00 0.00 0.00 90 1019.5
20260902034622 50 112 0.0 0.0 0.00 0.00 0.00 90 1019.5
20260902034547 50 112 0.0 0.0 0.00 0.00 0.00 90 1019.5
20260902034447 50 112 0.0 0.0 0.00 0.00 0.00 90 1019.5
20260902034347 50 112 0.0 0.0 0.00 0.00 0.00 90 1019.5
20260902034246 50 112 0.0 0.0 0.00 0.00 0.00 90 1019.4
20260902034123 50 112 0.0 0.0 0.00 0.00 0.00 90 1019.5
20260902034046 50 112 0.0 0.0 0.00 0.00 0.00 90 1019.5
20260902033946 50 112 0.0 0.0 0.00 0.00 0.00 90 1019.5
20260902033846 50 112 0.0 0.0 0.00 0.00 0.00 90 1019.5
20260902033746 50 112 0.0 0.0 0.00 0.00 0.00 90 1019.5
20260902033622 50 112 0.0 0.0 0.00 0.00 0.00 90 1019.5
20260902033547 50 112 0.0 0.0 0.00 0.00 0.00 90 1019.5
20260902033447 50 112 0.0 0.0 0.00 0.00 0.00 90 1019.5
20260902033342 50 112 0.0 0.0 0.00 0.00 0.00 90 1019.5
20260902033240 50 112 0.0 0.0 0.00 0.00 0.00 90 1019.5
20260902033122 50 112 0.0 0.0 0.00 0.00 0.00 90 1019.5
20260902033034 50 112 0.0 0.0 0.00 0.00 0.00 90 1019.5
20260902032932 50 112 0.0 0.0 0.00 0.00 0.00 90 1019.5
20260902032835 50 112 0.0 0.0 0.00 0.00 0.00 90 1019.5
20260902032831 50 112 0.0 0.0 0.00 0.00 0.00 90 1019.5
20260902032827 50 112 0.0 0.0 0.00 0.00 0.00 90 1019.5
20260902032529 50 112 0.0 0.0 0.00 0.00 0.00 90 1019.5
20260902032429 50 112 0.0 0.0 0.00 0.00 0.00 90 1019.5
20260902032330 50 112 0.0 0.0 0.00 0.00 0.00 90 1019.5
20260902032326 50 112 0.0 0.0 0.00 0.00 0.00 90 1019.5
20260902032322 51 112 0.0 0.0 0.00 0.00 0.00 90 1019.5
20260902032029 51 112 0.0 0.0 0.00 0.00 0.00 90 1019.5
20260902031927 51 112 0.0 0.0 0.00 0.00 0.00 90 1019.5
20260902031828 51 112 0.0 0.0 0.00 0.00 0.00 90 1019.5
20260902031726 51 112 0.0 0.0 0.00 0.00 0.00 90 1019.5
20260902031611 51 112 0.0 0.0 0.00 0.00 0.00 90 1019.5
20260902031525 51 112 0.0 0.0 0.00 0.00 0.00 90 1019.5
20260902031422 51 112 0.0 0.0 0.00 0.00 0.00 90 1019.5
20260902031319 51 112 0.0 0.0 0.00 0.00 0.00 90 1019.7
20260902031216 51 112 0.0 0.0 0.00 0.00 0.00 90 1019.5
20260902031108 51 112 0.0 0.0 0.00 0.00 0.00 90 1019.7
20260902031016 51 112 0.0 0.0 0.00 0.00 0.00 90 1019.7
20260902030915 51 112 0.0 0.0 0.00 0.00 0.00 90 1019.7
20260902030810 51 112 0.0 0.0 0.00 0.00 0.00 90 1019.7
20260902030710 51 112 0.0 0.0 0.00 0.00 0.00 90 1019.7
20260902030607 51 112 0.0 0.0 0.00 0.00 0.00 90 1019.7
20260902030510 51 112 0.0 0.0 0.00 0.00 0.00 90 1019.7
20260902030410 51 112 0.0 0.0 0.00 0.00 0.00 90 1019.7
20260902030324 51 112 0.0 0.0 0.00 0.00 0.00 91 1019.7
20260902030320 51 112 0.0 0.0 0.00 0.00 0.00 91 1019.7
20260902030315 51 112 0.0 0.0 0.00 0.00 0.00 91 1019.7
20260902030006 51 112 0.0 0.0 0.00 0.00 0.00 91 1019.7
20260902025904 51 112 0.0 0.0 0.00 0.00 0.00 91 1019.7
20260902025802 51 111 0.0 0.0 0.00 0.00 0.00 91 1019.7
20260902025703 51 112 0.0 0.0 0.00 0.00 0.00 91 1019.7
20260902025602 51 112 0.0 0.0 0.00 0.00 0.00 91 1019.7
20260902025501 51 112 0.0 0.0 0.00 0.00 0.00 91 1019.7
20260902025401 51 111 0.0 0.0 0.00 0.00 0.00 91 1019.5
20260902025301 51 111 0.0 0.0 0.00 0.00 0.00 91 1019.7
20260902025201 51 112 0.0 0.0 0.00 0.00 0.00 91 1019.7
20260902025101 51 112 0.0 0.0 0.00 0.00 0.00 91 1019.8
20260902025001 51 111 0.0 0.0 0.00 0.00 0.00 91 1019.7
20260902024901 51 111 0.0 0.0 0.00 0.00 0.00 91 1019.7
20260902024801 51 111 0.0 0.0 0.00 0.00 0.00 91 1019.8
20260902024701 51 111 0.0 0.0 0.00 0.00 0.00 91 1019.8
20260902024600 51 111 0.0 0.0 0.00 0.00 0.00 91 1019.8
20260902024501 51 111 0.0 0.0 0.00 0.00 0.00 91 1019.7
20260902024401 51 112 0.0 0.0 0.00 0.00 0.00 91 1019.8
20260902024321 51 112 0.0 0.0 0.00 0.00 0.00 91 1019.7
20260902024317 51 111 0.0 0.0 0.00 0.00 0.00 91 1019.7
20260902024313 51 111 0.0 1.7 0.00 0.00 0.00 91 1019.5
20260902024000 51 111 0.0 1.7 0.00 0.00 0.00 91 1019.5
20260902023900 51 111 0.0 1.7 0.00 0.00 0.00 91 1019.5
20260902023801 51 111 0.0 1.7 0.00 0.00 0.00 91 1019.7
20260902023701 51 111 0.9 1.7 0.00 0.00 0.00 91 1019.7
20260902023601 51 111 0.9 1.7 0.00 0.00 0.00 91 1019.7
20260902023500 51 111 0.9 1.7 0.00 0.00 0.00 91 1019.8
20260902023400 51 111 0.9 1.7 0.00 0.00 0.00 91 1019.8
20260902023301 51 111 0.9 1.7 0.00 0.00 0.00 91 1019.8
20260902023201 51 111 0.9 1.7 0.00 0.00 0.00 91 1019.8
20260902023101 51 111 0.9 1.7 0.00 0.00 0.00 91 1019.7
20260902023000 51 111 0.9 1.7 0.00 0.00 0.00 91 1019.7
20260902022900 51 111 0.9 1.7 0.00 0.00 0.00 91 1019.7
20260902022800 51 111 0.9 1.7 0.00 0.00 0.00 91 1019.8
20260902022700 51 111 0.9 1.7 0.00 0.00 0.00 91 1019.8
20260902022601 51 111 0.9 1.7 0.00 0.00 0.00 91 1019.7
20260902022501 51 111 0.9 1.7 0.00 0.00 0.00 91 1019.7
20260902022401 51 111 0.9 1.7 0.00 0.00 0.00 91 1019.7
20260902022319 51 111 0.9 1.7 0.00 0.00 0.00 91 1019.7
20260902022315 51 113 0.9 1.7 0.00 0.00 0.00 90 1019.7
20260902022311 51 112 0.9 1.7 0.00 0.00 0.00 90 1019.7
20260902022001 51 112 0.9 1.7 0.00 0.00 0.00 90 1019.7
20260902021901 51 112 0.9 1.7 0.00 0.00 0.00 90 1019.5
20260902021820 51 112 0.9 1.7 0.00 0.00 0.00 90 1019.5
20260902021816 51 112 0.9 1.7 0.00 0.00 0.00 90 1019.5
20260902021812 51 112 0.9 2.6 0.00 0.00 0.00 90 1019.5
20260902021501 51 112 0.9 2.6 0.00 0.00 0.00 90 1019.5
20260902021400 51 112 0.9 2.6 0.00 0.00 0.00 89 1019.5
20260902021301 51 112 0.9 2.6 0.00 0.00 0.00 89 1019.5
20260902021201 51 112 0.9 2.6 0.00 0.00 0.00 89 1019.5
20260902021101 51 111 0.9 2.6 0.00 0.00 0.00 89 1019.5
20260902021001 51 111 0.9 2.6 0.00 0.00 0.00 89 1019.5
20260902020901 51 111 0.9 2.6 0.00 0.00 0.00 89 1019.5
20260902020801 51 111 0.9 2.6 0.00 0.00 0.00 90 1019.5
20260902020701 51 112 0.9 2.6 0.00 0.00 0.00 90 1019.7
20260902020601 52 112 1.7 2.6 0.00 0.00 0.00 89 1019.7
20260902020501 52 112 1.7 2.6 0.00 0.00 0.00 89 1019.7
20260902020401 52 112 1.7 2.6 0.00 0.00 0.00 89 1019.8
20260902020319 52 112 1.7 2.6 0.00 0.00 0.00 89 1019.8
20260902020315 52 112 1.7 2.6 0.00 0.00 0.00 89 1019.8
20260902020311 52 112 1.7 2.6 0.00 0.00 0.00 89 1019.9
20260902020000 52 112 0.9 2.6 0.00 0.00 0.00 89 1019.9
20260902015900 52 111 0.9 2.6 0.00 0.00 0.00 89 1019.9
20260902015800 52 111 0.9 2.6 0.00 0.00 0.00 89 1019.9
20260902015700 52 110 0.9 2.6 0.00 0.00 0.00 89 1019.8
20260902015602 52 110 0.9 1.7 0.00 0.00 0.00 89 1019.9
20260902015558 52 110 0.9 1.7 0.00 0.00 0.00 89 1019.9
20260902015458 52 109 0.9 1.7 0.00 0.00 0.00 89 1019.9
20260902015356 52 110 0.9 1.7 0.00 0.00 0.00 89 1019.9
20260902015329 52 110 0.9 1.7 0.00 0.00 0.00 88 1019.8
20260902015317 52 110 0.9 1.7 0.00 0.00 0.00 89 1019.9
20260902015313 52 110 0.9 1.7 0.00 0.00 0.00 89 1019.9
20260902015052 52 110 0.9 1.7 0.00 0.00 0.00 88 1019.8
20260902014952 52 109 0.9 1.7 0.00 0.00 0.00 88 1019.9
20260902014850 52 109 0.9 1.7 0.00 0.00 0.00 88 1019.9
20260902014750 52 109 0.9 1.7 0.00 0.00 0.00 88 1019.9
20260902014648 52 109 0.9 1.7 0.00 0.00 0.00 88 1019.9
20260902014601 52 109 0.0 1.7 0.00 0.00 0.00 88 1019.9
20260902014545 52 109 0.0 1.7 0.00 0.00 0.00 88 1019.9
20260902014445 52 109 0.0 1.7 0.00 0.00 0.00 88 1019.9
20260902014345 52 109 0.0 1.7 0.00 0.00 0.00 87 1019.9
20260902014244 52 109 0.0 1.7 0.00 0.00 0.00 87 1019.9
20260902014144 52 109 0.0 0.9 0.00 0.00 0.00 87 1019.9
20260902014100 52 109 0.0 0.0 0.00 0.00 0.00 87 1019.9
20260902014044 53 109 0.0 0.0 0.00 0.00 0.00 87 1019.9
20260902013944 53 109 0.0 0.0 0.00 0.00 0.00 87 1019.9
20260902013842 53 109 0.0 0.0 0.00 0.00 0.00 87 1019.9
20260902013742 53 109 0.0 0.0 0.00 0.00 0.00 87 1020.0
20260902013640 53 109 0.0 0.0 0.00 0.00 0.00 87 1020.0
20260902013601 53 109 0.0 0.0 0.00 0.00 0.00 87 1020.0
20260902013539 53 109 0.0 0.0 0.00 0.00 0.00 87 1020.0
20260902013438 53 109 0.0 0.0 0.00 0.00 0.00 87 1020.0
20260902013337 53 109 0.0 0.0 0.00 0.00 0.00 86 1020.0
20260902013234 53 109 0.0 0.0 0.00 0.00 0.00 86 1020.0
20260902013134 53 109 0.0 0.0 0.00 0.00 0.00 86 1020.0
20260902013101 53 109 0.0 0.0 0.00 0.00 0.00 86 1020.0
20260902013032 53 109 0.0 0.0 0.00 0.00 0.00 86 1020.0
20260902012932 53 109 0.0 0.9 0.00 0.00 0.00 87 1020.0
20260902012830 53 109 0.0 0.9 0.00 0.00 0.00 87 1020.0
20260902012730 53 109 0.0 0.9 0.00 0.00 0.00 87 1020.0
20260902012601 53 109 0.0 0.9 0.00 0.00 0.00 87 1020.0
20260902012529 53 109 0.0 0.9 0.00 0.00 0.00 87 1020.0
20260902012429 53 109 0.0 0.9 0.00 0.00 0.00 87 1020.0
20260902012329 53 109 0.0 1.7 0.00 0.00 0.00 88 1020.0
20260902012229 53 109 0.0 1.7 0.00 0.00 0.00 88 1020.1
20260902012101 53 109 0.0 1.7 0.00 0.00 0.00 88 1020.0
20260902012041 53 109 0.0 1.7 0.00 0.00 0.00 89 1020.0
20260902012037 53 109 0.0 1.7 0.00 0.00 0.00 89 1020.0
20260902012029 53 109 0.9 1.7 0.00 0.00 0.00 89 1020.0
20260902012025 53 109 0.9 1.7 0.00 0.00 0.00 89 1020.0
20260902012021 53 109 0.9 1.7 0.00 0.00 0.00 89 1020.0
20260902012017 53 109 0.9 1.7 0.00 0.00 0.00 89 1020.0
20260902011548 53 109 0.9 1.7 0.00 0.00 0.00 89 1020.0
20260902011540 53 109 0.0 1.7 0.00 0.00 0.00 89 1020.0
20260902011321 53 109 0.0 1.7 0.00 0.00 0.00 89 1020.0
20260902011317 53 109 0.0 1.7 0.00 0.00 0.00 89 1020.0
20260902011313 53 109 0.0 1.7 0.00 0.00 0.00 89 1020.0
20260902011016 53 109 0.0 1.7 0.00 0.00 0.00 89 1020.0
20260902010910 53 109 0.0 1.7 0.00 0.00 0.00 89 1019.9
20260902010810 53 109 0.0 1.7 0.00 0.00 0.00 89 1020.0
20260902010710 54 109 0.0 1.7 0.00 0.00 0.00 89 1019.9
20260902010600 53 109 0.9 1.7 0.00 0.00 0.00 89 1020.0
20260902010509 53 109 0.9 1.7 0.00 0.00 0.00 89 1020.0
20260902010406 54 109 0.9 1.7 0.00 0.00 0.00 89 1020.0
20260902010306 53 109 0.9 2.6 0.00 0.00 0.00 89 1020.0
20260902010205 54 109 0.9 2.6 0.00 0.00 0.00 89 1020.0
20260902010100 53 109 0.9 2.6 0.00 0.00 0.00 89 1020.0
20260902010006 54 109 0.9 2.6 0.00 0.00 0.00 89 1019.9
20260902005902 53 109 0.9 2.6 0.00 0.00 0.00 89 1020.0
20260902005802 53 109 0.9 2.6 0.00 0.00 0.00 89 1020.0
20260902005702 53 109 0.9 2.6 0.00 0.00 0.00 90 1020.0
20260902005604 53 108 0.9 2.6 0.00 0.00 0.00 90 1020.0
20260902005502 53 108 0.9 2.6 0.00 0.00 0.00 90 1020.0
20260902005401 53 107 0.9 2.6 0.00 0.00 0.00 90 1020.0
20260902005301 53 107 0.9 2.6 0.00 0.00 0.00 89 1020.0
20260902005201 53 105 0.9 2.6 0.00 0.00 0.00 90 1020.0
20260902005102 53 105 0.9 2.6 0.00 0.00 0.00 90 1020.0
20260902005001 53 103 0.9 1.7 0.00 0.00 0.00 89 1020.0
20260902004901 53 103 0.9 1.7 0.00 0.00 0.00 89 1020.0
20260902004801 53 104 0.9 1.7 0.00 0.00 0.00 89 1020.0
20260902004701 53 104 0.9 1.7 0.00 0.00 0.00 89 1020.0
20260902004601 53 104 0.9 1.7 0.00 0.00 0.00 89 1020.0
20260902004500 53 104 0.9 1.7 0.00 0.00 0.00 89 1020.0
20260902004401 53 104 0.9 1.7 0.00 0.00 0.00 89 1020.0
20260902004301 53 104 0.9 1.7 0.00 0.00 0.00 89 1020.1
20260902004200 53 104 0.9 1.7 0.00 0.00 0.00 89 1020.1
20260902004100 53 104 0.9 1.7 0.00 0.00 0.00 89 1020.1
20260902004001 53 104 0.9 1.7 0.00 0.00 0.00 89 1020.1
20260902003900 53 104 0.0 1.7 0.00 0.00 0.00 89 1020.1
20260902003800 54 105 0.0 1.7 0.00 0.00 0.00 89 1020.1
20260902003700 54 104 0.0 1.7 0.00 0.00 0.00 89 1020.1
20260902003601 53 104 0.0 1.7 0.00 0.00 0.00 88 1020.1
20260902003501 54 104 0.0 1.7 0.00 0.00 0.00 88 1020.1
20260902003400 54 104 0.0 1.7 0.00 0.00 0.00 88 1020.1
20260902003321 54 104 0.0 1.7 0.00 0.00 0.00 89 1020.1
20260902003317 54 104 0.0 1.7 0.00 0.00 0.00 89 1020.1
20260902003313 54 104 0.0 1.7 0.00 0.00 0.00 89 1020.0
20260902003000 54 104 0.0 1.7 0.00 0.00 0.00 89 1020.1
20260902002901 54 104 0.0 1.7 0.00 0.00 0.00 89 1020.1
20260902002802 54 104 0.0 2.6 0.00 0.00 0.00 89 1020.1
20260902002702 54 104 0.0 2.6 0.00 0.00 0.00 89 1020.1
20260902002601 54 103 0.9 2.6 0.00 0.00 0.00 89 1020.1
20260902002501 54 104 0.9 2.6 0.00 0.00 0.00 89 1020.1
20260902002401 54 104 0.9 2.6 0.00 0.00 0.00 89 1020.1
20260902002321 54 103 0.9 2.6 0.00 0.00 0.00 89 1020.1
20260902002316 54 104 0.9 2.6 0.00 0.00 0.00 89 1020.1
20260902002312 54 104 0.9 2.6 0.00 0.00 0.00 89 1020.1
20260902002308 54 104 0.9 2.6 0.00 0.00 0.00 89 1020.1
20260902002001 54 104 0.9 2.6 0.00 0.00 0.00 89 1020.1
20260902001901 54 103 0.9 2.6 0.00 0.00 0.00 89 1020.1
20260902001801 54 102 0.9 2.6 0.00 0.00 0.00 89 1020.1
20260902001701 54 98 0.9 2.6 0.00 0.00 0.00 89 1020.1
20260902001600 54 98 0.9 2.6 0.00 0.00 0.00 89 1020.1
20260902001551 54 98 0.9 2.6 0.00 0.00 0.00 88 1020.1
20260902001501 54 99 0.9 2.6 0.00 0.00 0.00 88 1020.1
20260902001400 54 98 0.9 2.6 0.00 0.00 0.00 88 1020.1
20260902001300 54 97 0.9 2.6 0.00 0.00 0.00 88 1020.1
20260902001201 54 96 0.9 2.6 0.00 0.00 0.00 88 1020.2
20260902001101 54 96 0.9 2.6 0.00 0.00 0.00 88 1020.2
20260902001046 54 96 0.9 2.6 0.00 0.00 0.00 88 1020.2
20260902001001 54 89 0.9 2.6 0.00 0.00 0.00 88 1020.2
20260902000901 54 86 0.9 2.6 0.00 0.00 0.00 88 1020.2
20260902000801 54 82 0.9 2.6 0.00 0.00 0.00 88 1020.2
20260902000701 54 78 0.9 2.6 0.00 0.00 0.00 88 1020.2
20260902000601 54 78 0.9 2.6 0.00 0.00 0.00 88 1020.2
20260902000539 54 78 0.9 2.6 0.00 0.00 0.00 87 1020.2
20260902000500 54 78 0.9 2.6 0.00 0.00 0.00 87 1020.1
20260902000359 54 77 0.9 2.6 0.00 0.00 0.00 87 1020.2
20260902000257 54 77 0.9 2.6 0.00 0.00 0.00 87 1020.2
20260902000156 54 76 0.9 2.6 0.00 0.00 0.00 87 1020.2
20260902000036 54 76 0.9 2.6 0.00 0.00 0.00 87 1020.2
20260901235954 54 76 0.9 2.6 0.00 0.00 0.00 87 1020.3
20260901235851 54 74 0.9 1.7 0.00 0.00 0.00 87 1020.2
20260901235750 54 64 0.9 1.7 0.00 0.00 0.00 87 1020.2
20260901235650 54 63 0.9 1.7 0.00 0.00 0.00 87 1020.2
20260901235536 54 63 0.9 1.7 0.00 0.00 0.00 87 1020.2
20260901235528 54 63 0.9 1.7 0.00 0.00 0.00 87 1020.2
20260901235521 54 63 0.9 1.7 0.00 0.00 0.00 87 1020.2
20260901235513 54 63 0.9 1.7 0.00 0.00 0.00 87 1020.2
20260901235256 54 63 0.9 1.7 0.00 0.00 0.00 87 1020.2
20260901235252 54 63 0.9 1.7 0.00 0.00 0.00 87 1020.2
20260901235248 54 63 0.9 1.7 0.00 0.00 0.00 87 1020.2
20260901234942 54 63 0.9 1.7 0.00 0.00 0.00 87 1020.2
20260901234840 54 63 0.9 1.7 0.00 0.00 0.00 87 1020.2
20260901234755 54 63 0.0 1.7 0.00 0.00 0.00 86 1020.2
20260901234751 54 63 0.0 1.7 0.00 0.00 0.00 86 1020.2
20260901234747 54 63 0.0 1.7 0.00 0.00 0.00 86 1020.2
20260901234436 55 63 0.0 1.7 0.00 0.00 0.00 86 1020.2
20260901234336 55 63 0.0 1.7 0.00 0.00 0.00 86 1020.3
20260901234236 55 63 0.9 1.7 0.00 0.00 0.00 86 1020.3
20260901234136 55 63 0.9 1.7 0.00 0.00 0.00 86 1020.3
20260901234035 55 62 0.9 1.7 0.00 0.00 0.00 86 1020.3
20260901233934 55 62 0.9 1.7 0.00 0.00 0.00 86 1020.3
20260901233833 55 62 0.9 1.7 0.00 0.00 0.00 86 1020.2
20260901233755 55 62 0.9 1.7 0.00 0.00 0.00 86 1020.3
20260901233751 55 62 0.9 1.7 0.00 0.00 0.00 86 1020.3
20260901233747 55 62 0.0 1.7 0.00 0.00 0.00 86 1020.3
20260901233432 55 62 0.0 1.7 0.00 0.00 0.00 87 1020.3
20260901233331 55 60 0.0 1.7 0.00 0.00 0.00 86 1020.3
20260901233258 55 59 0.0 0.9 0.00 0.00 0.00 86 1020.3
20260901233250 55 60 0.0 1.7 0.00 0.00 0.00 86 1020.2
20260901233245 55 60 0.0 0.9 0.00 0.00 0.00 86 1020.3
20260901233030 55 59 0.0 0.9 0.00 0.00 0.00 86 1020.3
20260901232930 55 59 0.0 0.0 0.00 0.00 0.00 86 1020.3
20260901232830 55 59 0.0 0.0 0.00 0.00 0.00 86 1020.3
20260901232730 55 59 0.0 0.0 0.00 0.00 0.00 86 1020.3
20260901232629 55 59 0.0 0.9 0.00 0.00 0.00 86 1020.3
20260901232529 55 59 0.0 1.7 0.00 0.00 0.00 86 1020.3
20260901232429 55 59 0.0 1.7 0.00 0.00 0.00 86 1020.3
20260901232329 55 59 0.0 1.7 0.00 0.00 0.00 86 1020.3
20260901232257 55 59 0.0 1.7 0.00 0.00 0.00 86 1020.3
20260901232249 55 59 0.0 1.7 0.00 0.00 0.00 86 1020.3
20260901232245 55 59 0.0 1.7 0.00 0.00 0.00 86 1020.3
20260901232029 55 59 0.0 1.7 0.00 0.00 0.00 87 1020.3
20260901231929 55 59 0.0 1.7 0.00 0.00 0.00 87 1020.3
20260901231829 55 59 0.0 1.7 0.00 0.00 0.00 86 1020.3
20260901231729 55 59 0.0 1.7 0.00 0.00 0.00 86 1020.3
20260901231629 55 59 0.0 1.7 0.00 0.00 0.00 86 1020.3
20260901231529 55 59 0.0 1.7 0.00 0.00 0.00 86 1020.3
20260901231429 55 59 0.0 1.7 0.00 0.00 0.00 86 1020.3
20260901231329 55 59 0.0 0.9 0.00 0.00 0.00 86 1020.3
20260901231254 55 59 0.0 0.9 0.00 0.00 0.00 86 1020.3
20260901231247 55 59 0.0 0.9 0.00 0.00 0.00 86 1020.3
20260901231243 55 59 0.0 0.9 0.00 0.00 0.00 86 1020.3
20260901231028 55 59 0.0 0.9 0.00 0.00 0.00 86 1020.3
20260901231022 56 59 0.9 0.9 0.00 0.00 0.00 86 1020.3
20260901231018 55 59 0.0 0.9 0.00 0.00 0.00 86 1020.3
20260901231006 56 59 0.0 0.9 0.00 0.00 0.00 86 1020.3
20260901230748 56 59 0.0 0.9 0.00 0.00 0.00 86 1020.3
20260901230744 56 59 0.0 0.9 0.00 0.00 0.00 86 1020.3
20260901230529 56 59 0.9 0.9 0.00 0.00 0.00 86 1020.3
20260901230428 56 59 0.9 0.9 0.00 0.00 0.00 86 1020.3
20260901230330 56 59 0.9 1.7 0.00 0.00 0.00 86 1020.3
20260901230229 56 59 0.9 1.7 0.00 0.00 0.00 86 1020.3
20260901230127 56 59 0.9 1.7 0.00 0.00 0.00 86 1020.3
20260901230028 56 59 0.9 1.7 0.00 0.00 0.00 86 1020.4
20260901225928 56 59 0.9 1.7 0.00 0.00 0.00 86 1020.3
20260901225826 56 59 0.9 1.7 0.00 0.00 0.00 86 1020.3
20260901225752 56 59 0.9 1.7 0.00 0.00 0.00 86 1020.3
20260901225744 56 59 0.9 1.7 0.00 0.00 0.00 86 1020.3
20260901225740 56 59 0.9 1.7 0.00 0.00 0.00 86 1020.3
20260901225522 56 59 0.9 1.7 0.00 0.00 0.00 86 1020.3
20260901225420 56 59 0.9 1.7 0.00 0.00 0.00 86 1020.3
20260901225320 56 59 0.9 1.7 0.00 0.00 0.00 86 1020.3
20260901225249 56 58 0.9 1.7 0.00 0.00 0.00 86 1020.3
20260901225243 56 59 0.9 1.7 0.00 0.00 0.00 86 1020.3
20260901225239 56 59 0.9 1.7 0.00 0.00 0.00 86 1020.3
20260901225020 56 58 0.9 1.7 0.00 0.00 0.00 86 1020.3
20260901224920 56 57 0.9 1.7 0.00 0.00 0.00 86 1020.3
20260901224817 56 57 0.0 1.7 0.00 0.00 0.00 86 1020.3
20260901224718 56 57 0.0 1.7 0.00 0.00 0.00 86 1020.3
20260901224618 56 57 0.9 1.7 0.00 0.00 0.00 86 1020.3
20260901224518 56 57 0.9 1.7 0.00 0.00 0.00 86 1020.3
20260901224416 56 57 0.9 1.7 0.00 0.00 0.00 86 1020.4
20260901224316 56 57 0.0 1.7 0.00 0.00 0.00 86 1020.3
20260901224253 56 57 0.9 1.7 0.00 0.00 0.00 86 1020.4
20260901224243 56 57 0.9 1.7 0.00 0.00 0.00 86 1020.3
20260901224239 56 57 0.9 1.7 0.00 0.00 0.00 86 1020.4
20260901224011 56 57 0.9 1.7 0.00 0.00 0.00 86 1020.3
20260901223911 56 57 0.9 1.7 0.00 0.00 0.00 86 1020.3
20260901223810 56 57 0.9 1.7 0.00 0.00 0.00 85 1020.3
20260901223707 56 52 0.9 1.7 0.00 0.00 0.00 86 1020.4
20260901223607 56 48 0.9 1.7 0.00 0.00 0.00 85 1020.4
20260901223528 56 47 0.9 1.7 0.00 0.00 0.00 85 1020.4
20260901223506 56 47 0.0 1.7 0.00 0.00 0.00 85 1020.4
20260901223404 56 47 0.0 1.7 0.00 0.00 0.00 86 1020.4
20260901223304 56 47 0.0 1.7 0.00 0.00 0.00 86 1020.4
20260901223202 56 47 0.0 1.7 0.00 0.00 0.00 86 1020.4
20260901223102 56 47 0.0 1.7 0.00 0.00 0.00 86 1020.4
20260901223002 56 46 0.0 1.7 0.00 0.00 0.00 86 1020.4
20260901222901 56 46 0.0 1.7 0.00 0.00 0.00 86 1020.5
20260901222802 56 33 0.0 1.7 0.00 0.00 0.00 85 1020.4
20260901222702 57 12 0.0 1.7 0.00 0.00 0.00 85 1020.4
20260901222600 57 12 0.0 1.7 0.00 0.00 0.00 85 1020.4
20260901222501 57 12 0.0 1.7 0.00 0.00 0.00 85 1020.4
20260901222401 57 12 0.0 1.7 0.00 0.00 0.00 85 1020.5
20260901222300 57 12 0.0 1.7 0.00 0.00 0.00 85 1020.5
20260901222200 57 12 0.0 1.7 0.00 0.00 0.00 85 1020.5
20260901222101 57 12 0.0 1.7 0.00 0.00 0.00 85 1020.5
20260901222001 57 12 0.0 1.7 0.00 0.00 0.00 85 1020.5
20260901221901 57 5 0.0 1.7 0.00 0.00 0.00 85 1020.4
20260901221801 57 5 0.0 1.7 0.00 0.00 0.00 85 1020.5
20260901221749 57 5 0.0 1.7 0.00 0.00 0.00 85 1020.5
20260901221744 57 5 0.0 1.7 0.00 0.00 0.00 85 1020.5
20260901221740 57 5 0.0 1.7 0.00 0.00 0.00 85 1020.5
20260901221500 57 5 0.0 1.7 0.00 0.00 0.00 85 1020.5
20260901221400 57 5 0.0 1.7 0.00 0.00 0.00 85 1020.5
20260901221301 57 5 0.0 1.7 0.00 0.00 0.00 84 1020.5
20260901221200 57 5 0.0 1.7 0.00 0.00 0.00 84 1020.5
20260901221100 57 5 0.0 1.7 0.00 0.00 0.00 85 1020.5
20260901221029 57 5 0.0 1.7 0.00 0.00 0.00 85 1020.5
20260901221001 57 0 0.0 1.7 0.00 0.00 0.00 85 1020.5
20260901220901 57 0 0.0 1.7 0.00 0.00 0.00 84 1020.5
20260901220801 57 0 0.0 1.7 0.00 0.00 0.00 84 1020.5
20260901220701 57 0 0.0 1.7 0.00 0.00 0.00 84 1020.5
20260901220601 57 0 0.0 1.7 0.00 0.00 0.00 84 1020.5
20260901220500 57 336 0.0 1.7 0.00 0.00 0.00 84 1020.5
20260901220400 57 336 0.0 1.7 0.00 0.00 0.00 84 1020.5
20260901220301 57 336 0.0 0.9 0.00 0.00 0.00 84 1020.5
20260901220200 57 336 0.0 0.9 0.00 0.00 0.00 84 1020.5
20260901220001 57 336 0.0 0.9 0.00 0.00 0.00 84 1020.5
20260901215901 57 336 0.0 0.9 0.00 0.00 0.00 84 1020.5
20260901215801 57 336 0.0 0.9 0.00 0.00 0.00 84 1020.6
20260901215701 57 336 0.0 0.9 0.00 0.00 0.00 84 1020.6
20260901215601 57 336 0.0 0.9 0.00 0.00 0.00 84 1020.5
20260901215501 57 336 0.0 0.9 0.00 0.00 0.00 84 1020.5
20260901215401 57 336 0.0 0.9 0.00 0.00 0.00 84 1020.5
20260901215301 57 336 0.0 1.7 0.00 0.00 0.00 84 1020.5
20260901215201 57 336 0.0 1.7 0.00 0.00 0.00 84 1020.5
20260901215101 57 336 0.0 1.7 0.00 0.00 0.00 84 1020.5
20260901215000 57 336 0.0 1.7 0.00 0.00 0.00 84 1020.5
20260901214901 57 336 0.0 1.7 0.00 0.00 0.00 84 1020.5
20260901214801 57 336 0.0 1.7 0.00 0.00 0.00 84 1020.5
20260901214700 57 335 0.0 1.7 0.00 0.00 0.00 84 1020.5
20260901214600 57 335 0.0 1.7 0.00 0.00 0.00 84 1020.5
20260901214500 57 335 0.0 1.7 0.00 0.00 0.00 84 1020.5
20260901214359 57 335 0.0 1.7 0.00 0.00 0.00 84 1020.5
20260901214259 57 335 0.0 1.7 0.00 0.00 0.00 84 1020.5
20260901214159 57 333 0.0 1.7 0.00 0.00 0.00 84 1020.5
20260901214059 58 333 0.0 1.7 0.00 0.00 0.00 84 1020.5
20260901214029 57 333 0.0 0.9 0.00 0.00 0.00 84 1020.5
20260901213954 58 332 0.0 0.0 0.00 0.00 0.00 84 1020.5
20260901213852 58 332 0.0 0.0 0.00 0.00 0.00 84 1020.5
20260901213753 58 332 0.0 0.0 0.00 0.00 0.00 84 1020.5
20260901213650 58 332 0.0 0.0 0.00 0.00 0.00 84 1020.4
20260901213529 58 332 0.0 0.0 0.00 0.00 0.00 84 1020.5
20260901213450 58 332 0.0 0.9 0.00 0.00 0.00 84 1020.4
20260901213350 58 332 0.0 0.9 0.00 0.00 0.00 84 1020.4
20260901213250 58 332 0.0 0.9 0.00 0.00 0.00 84 1020.5
20260901213148 58 332 0.0 0.9 0.00 0.00 0.00 83 1020.4
20260901213029 58 332 0.0 0.9 0.00 0.00 0.00 83 1020.5
20260901212949 58 332 0.0 0.9 0.00 0.00 0.00 83 1020.4
20260901212849 58 332 0.0 0.9 0.00 0.00 0.00 83 1020.4
20260901212749 58 332 0.0 0.9 0.00 0.00 0.00 83 1020.5
20260901212745 58 332 0.0 0.9 0.00 0.00 0.00 83 1020.5
20260901212740 58 332 0.0 0.9 0.00 0.00 0.00 83 1020.4
20260901212731 58 332 0.0 0.9 0.00 0.00 0.00 83 1020.4
20260901212515 58 332 0.0 0.9 0.00 0.00 0.00 83 1020.4
20260901212511 58 332 0.0 0.9 0.00 0.00 0.00 83 1020.4
20260901212249 58 332 0.0 0.9 0.00 0.00 0.00 83 1020.4
20260901212245 58 332 0.0 0.9 0.00 0.00 0.00 83 1020.4
20260901212240 58 332 0.0 0.9 0.00 0.00 0.00 83 1020.5
20260901211943 58 332 0.0 0.9 0.00 0.00 0.00 83 1020.4
20260901211842 58 332 0.0 0.9 0.00 0.00 0.00 83 1020.4
20260901211748 58 332 0.0 0.9 0.00 0.00 0.00 83 1020.4
20260901211744 58 332 0.0 0.9 0.00 0.00 0.00 83 1020.4
20260901211739 58 332 0.0 0.9 0.00 0.00 0.00 83 1020.4
20260901211443 58 332 0.0 0.9 0.00 0.00 0.00 83 1020.4
20260901211343 58 332 0.0 0.9 0.00 0.00 0.00 83 1020.4
20260901211243 58 332 0.0 0.9 0.00 0.00 0.00 83 1020.4
20260901211143 58 332 0.0 0.9 0.00 0.00 0.00 83 1020.4
20260901211028 58 332 0.0 1.7 0.00 0.00 0.00 83 1020.4
20260901210943 58 332 0.0 1.7 0.00 0.00 0.00 83 1020.4
20260901210842 58 332 0.9 1.7 0.00 0.00 0.00 82 1020.4
20260901210743 58 332 0.9 1.7 0.00 0.00 0.00 82 1020.4
20260901210643 58 332 0.9 1.7 0.00 0.00 0.00 82 1020.4
20260901210528 58 332 0.9 1.7 0.00 0.00 0.00 82 1020.4
20260901210442 58 332 0.9 1.7 0.00 0.00 0.00 82 1020.4
20260901210409 58 332 0.9 1.7 0.00 0.00 0.00 82 1020.4
20260901210239 58 331 0.9 1.7 0.00 0.00 0.00 82 1020.4
20260901210139 58 331 0.0 1.7 0.00 0.00 0.00 82 1020.4
20260901210039 58 331 0.0 1.7 0.00 0.00 0.00 82 1020.4
20260901210028 59 331 0.0 1.7 0.00 0.00 0.00 82 1020.4
20260901205938 59 331 0.0 1.7 0.00 0.00 0.00 82 1020.4
20260901205838 59 331 0.0 1.7 0.00 0.00 0.00 82 1020.4
20260901205749 59 331 0.0 1.7 0.00 0.00 0.00 82 1020.4
20260901205745 59 331 0.0 1.7 0.00 0.00 0.00 82 1020.4
20260901205741 59 331 0.0 0.9 0.00 0.00 0.00 82 1020.4
20260901205438 59 331 0.0 0.9 0.00 0.00 0.00 82 1020.4
20260901205339 59 331 0.0 0.9 0.00 0.00 0.00 82 1020.4
20260901205238 59 331 0.0 0.9 0.00 0.00 0.00 82 1020.4
20260901205139 59 331 0.0 0.9 0.00 0.00 0.00 82 1020.3
20260901205028 59 331 0.0 0.9 0.00 0.00 0.00 82 1020.3
20260901204939 59 331 0.0 0.9 0.00 0.00 0.00 81 1020.3
20260901204838 59 331 0.0 0.9 0.00 0.00 0.00 81 1020.4
20260901204738 59 331 0.0 0.9 0.00 0.00 0.00 81 1020.3
20260901204638 59 331 0.0 0.9 0.00 0.00 0.00 81 1020.3
20260901204529 59 331 0.0 0.9 0.00 0.00 0.00 81 1020.3
20260901204435 59 331 0.0 0.9 0.00 0.00 0.00 81 1020.3
20260901204336 59 331 0.0 0.9 0.00 0.00 0.00 81 1020.3
20260901204234 59 331 0.0 0.9 0.00 0.00 0.00 81 1020.3
20260901204134 59 331 0.0 0.9 0.00 0.00 0.00 81 1020.3
20260901204029 59 331 0.0 0.9 0.00 0.00 0.00 81 1020.3
20260901203935 59 331 0.0 0.9 0.00 0.00 0.00 81 1020.3
20260901203835 59 331 0.0 0.9 0.00 0.00 0.00 81 1020.3
20260901203735 59 331 0.0 0.9 0.00 0.00 0.00 81 1020.3
20260901203634 59 331 0.0 0.9 0.00 0.00 0.00 81 1020.3
20260901203528 59 331 0.0 0.9 0.00 0.00 0.00 81 1020.3
20260901203516 60 331 0.0 0.9 0.00 0.00 0.00 82 1020.3
20260901203512 59 331 0.0 0.9 0.00 0.00 0.00 81 1020.3
20260901203508 59 331 0.0 0.9 0.00 0.00 0.00 81 1020.3
20260901203248 59 331 0.0 0.9 0.00 0.00 0.00 82 1020.3
20260901203244 60 331 0.0 0.9 0.00 0.00 0.00 82 1020.3
20260901203240 60 331 0.0 0.9 0.00 0.00 0.00 82 1020.3
20260901202934 60 331 0.0 0.9 0.00 0.00 0.00 82 1020.3
20260901202834 60 331 0.0 0.9 0.00 0.00 0.00 81 1020.3
20260901202738 60 331 0.0 0.9 0.00 0.00 0.00 81 1020.4
20260901202634 60 331 0.0 0.9 0.00 0.00 0.00 81 1020.3
20260901202529 60 331 0.0 0.9 0.00 0.00 0.00 81 1020.3
20260901202431 60 331 0.0 0.9 0.00 0.00 0.00 81 1020.3
20260901202331 60 331 0.0 0.9 0.00 0.00 0.00 81 1020.3
20260901202253 60 331 0.0 0.0 0.00 0.00 0.00 81 1020.3
20260901202245 60 331 0.0 0.0 0.00 0.00 0.00 81 1020.2
20260901202240 60 331 0.0 0.0 0.00 0.00 0.00 81 1020.3
20260901201931 60 331 0.0 0.0 0.00 0.00 0.00 81 1020.2
20260901201831 60 331 0.0 0.0 0.00 0.00 0.00 81 1020.2
20260901201733 60 331 0.0 0.0 0.00 0.00 0.00 81 1020.3
20260901201631 60 331 0.0 0.0 0.00 0.00 0.00 80 1020.2
20260901201528 60 331 0.0 0.0 0.00 0.00 0.00 80 1020.2
20260901201431 60 331 0.0 0.0 0.00 0.00 0.00 80 1020.2
20260901201330 60 331 0.0 0.0 0.00 0.00 0.00 80 1020.2
20260901201230 60 331 0.0 0.0 0.00 0.00 0.00 80 1020.3
20260901201131 60 331 0.0 0.0 0.00 0.00 0.00 80 1020.3
20260901201028 60 331 0.0 0.0 0.00 0.00 0.00 80 1020.3
20260901200930 60 331 0.0 0.0 0.00 0.00 0.00 80 1020.3
20260901200830 60 331 0.0 0.0 0.00 0.00 0.00 80 1020.2
20260901200731 61 331 0.0 0.0 0.00 0.00 0.00 80 1020.2
20260901200630 61 331 0.0 0.0 0.00 0.00 0.00 80 1020.2
20260901200529 61 331 0.0 0.9 0.00 0.00 0.00 80 1020.2
20260901200431 61 331 0.0 0.9 0.00 0.00 0.00 79 1020.2
20260901200330 61 331 0.0 0.9 0.00 0.00 0.00 79 1020.2
20260901200252 61 331 0.0 0.9 0.00 0.00 0.00 79 1020.2
20260901200244 61 331 0.0 0.9 0.00 0.00 0.00 79 1020.2
20260901200240 61 331 0.0 0.9 0.00 0.00 0.00 78 1020.1
20260901195928 61 331 0.0 0.9 0.00 0.00 0.00 79 1020.2
20260901195829 61 331 0.0 0.9 0.00 0.00 0.00 78 1020.2
20260901195751 61 331 0.0 0.9 0.00 0.00 0.00 79 1020.2
20260901195743 61 331 0.0 0.9 0.00 0.00 0.00 78 1020.1
20260901195739 61 331 0.0 0.9 0.00 0.00 0.00 79 1020.1
20260901195429 61 331 0.0 0.0 0.00 0.00 0.00 79 1020.1
20260901195329 61 331 0.0 0.0 0.00 0.00 0.00 79 1020.1
20260901195229 61 331 0.0 0.0 0.00 0.00 0.00 79 1020.2
20260901195128 61 331 0.0 0.0 0.00 0.00 0.00 78 1020.1
20260901195022 61 331 0.0 0.0 0.00 0.00 0.00 78 1020.2
20260901194929 61 331 0.0 0.0 0.00 0.00 0.00 77 1020.2
20260901194828 61 331 0.0 0.0 0.00 0.00 0.00 77 1020.1
20260901194728 61 331 0.0 0.0 0.00 0.00 0.00 77 1020.2
20260901194629 61 331 0.0 0.0 0.00 0.00 0.00 77 1020.1
20260901194516 61 331 0.0 0.0 0.00 0.00 0.00 77 1020.1
20260901194428 61 331 0.0 0.0 0.00 0.00 0.00 77 1020.1
20260901194328 61 331 0.0 0.0 0.00 0.00 0.00 77 1020.1
20260901194229 61 331 0.0 0.0 0.00 0.00 0.00 77 1020.0
20260901194128 62 331 0.0 0.0 0.00 0.00 0.00 76 1020.0
20260901194010 62 331 0.0 0.0 0.00 0.00 0.00 76 1020.0
20260901193928 62 331 0.0 0.0 0.00 0.00 0.00 76 1020.0
20260901193828 62 331 0.0 0.0 0.00 0.00 0.00 76 1020.0
20260901193725 62 331 0.0 0.0 0.00 0.00 0.00 75 1020.0
20260901193624 62 331 0.0 0.0 0.00 0.00 0.00 75 1020.0
20260901193510 62 331 0.0 0.0 0.00 0.00 0.00 76 1020.0
20260901193425 62 331 0.0 0.0 0.00 0.00 0.00 76 1020.0
20260901193324 62 331 0.0 0.0 0.00 0.00 0.00 76 1020.0
20260901193224 62 331 0.0 0.0 0.00 0.00 0.00 76 1020.0
20260901193124 62 331 0.0 0.0 0.00 0.00 0.00 76 1020.0
20260901193009 62 331 0.0 0.0 0.00 0.00 0.00 76 1020.0
20260901192923 62 331 0.0 0.0 0.00 0.00 0.00 75 1020.0
20260901192822 62 331 0.0 0.0 0.00 0.00 0.00 77 1019.9
20260901192723 62 331 0.0 0.0 0.00 0.00 0.00 77 1020.0
20260901192622 62 331 0.0 0.0 0.00 0.00 0.00 77 1019.9
20260901192507 62 331 0.0 0.0 0.00 0.00 0.00 77 1020.0
20260901192420 62 331 0.0 0.0 0.00 0.00 0.00 77 1019.9
20260901192321 62 331 0.0 0.0 0.00 0.00 0.00 77 1019.9
20260901192219 62 331 0.0 0.0 0.00 0.00 0.00 77 1019.9
20260901192116 62 331 0.0 0.0 0.00 0.00 0.00 77 1019.9
20260901192004 62 331 0.0 0.0 0.00 0.00 0.00 77 1019.9
20260901191917 62 331 0.0 0.0 0.00 0.00 0.00 77 1019.9
20260901191816 62 331 0.0 0.0 0.00 0.00 0.00 77 1019.9
20260901191716 63 331 0.0 0.0 0.00 0.00 0.00 77 1019.9
20260901191615 63 331 0.0 0.0 0.00 0.00 0.00 77 1020.0
20260901191504 63 331 0.0 0.0 0.00 0.00 0.00 77 1019.9
20260901191412 63 331 0.0 0.0 0.00 0.00 0.00 77 1020.0
20260901191311 63 331 0.0 0.0 0.00 0.00 0.00 77 1019.9
20260901191210 63 331 0.0 0.0 0.00 0.00 0.00 77 1019.9
20260901191108 63 331 0.0 0.0 0.00 0.00 0.00 77 1019.9
20260901191004 63 331 0.0 0.0 0.00 0.00 0.00 76 1019.9
20260901190906 63 331 0.0 0.0 0.00 0.00 0.00 76 1019.8
20260901190806 63 331 0.0 0.0 0.00 0.00 0.00 76 1019.9
20260901190705 63 331 0.0 0.0 0.00 0.00 0.00 76 1019.8
20260901190602 63 331 0.0 0.0 0.00 0.00 0.00 76 1019.8
20260901190502 63 331 0.0 0.0 0.00 0.00 0.00 76 1019.8
20260901190403 63 331 0.0 0.0 0.00 0.00 0.00 76 1019.8
20260901190301 63 331 0.0 0.9 0.00 0.00 0.00 76 1019.8
20260901190201 64 331 0.0 0.9 0.00 0.00 0.00 76 1019.7
20260901190001 64 331 0.0 0.9 0.00 0.00 0.00 75 1019.8
20260901185901 64 331 0.0 0.9 0.00 0.00 0.00 75 1019.8
20260901185801 64 331 0.0 0.9 0.00 0.00 0.00 75 1019.8
20260901185702 64 331 0.0 0.9 0.00 0.00 0.00 75 1019.8
20260901185601 64 331 0.0 0.9 0.00 0.00 0.00 74 1019.7
20260901185502 64 331 0.0 0.9 0.00 0.00 0.00 74 1019.7
20260901185401 64 331 0.0 0.9 0.00 0.00 0.00 74 1019.7
20260901185301 64 331 0.0 0.9 0.00 0.00 0.00 74 1019.7
20260901185201 64 331 0.0 0.9 0.00 0.00 0.00 74 1019.7
20260901185101 64 331 0.0 0.9 0.00 0.00 0.00 74 1019.7
20260901185000 64 331 0.0 0.9 0.00 0.00 0.00 74 1019.5
20260901184900 64 331 0.0 0.9 0.00 0.00 0.00 74 1019.5
20260901184800 65 331 0.0 0.9 0.00 0.00 0.00 73 1019.5
20260901184725 65 331 0.0 0.9 0.00 0.00 0.00 73 1019.5
20260901184716 65 331 0.0 0.9 0.00 0.00 0.00 73 1019.5
20260901184712 65 331 0.0 0.9 0.00 0.00 0.00 73 1019.5
20260901184401 65 331 0.0 0.0 0.00 0.00 0.00 73 1019.5
20260901184301 65 331 0.0 0.0 0.00 0.00 0.00 73 1019.5
20260901184200 65 331 0.0 0.0 0.00 0.00 0.00 72 1019.5
20260901184100 65 331 0.0 0.0 0.00 0.00 0.00 71 1019.5
20260901184000 65 331 0.0 0.0 0.00 0.00 0.00 71 1019.5
20260901183901 65 331 0.0 0.0 0.00 0.00 0.00 71 1019.5
20260901183801 65 331 0.0 0.0 0.00 0.00 0.00 71 1019.5
20260901183732 66 331 0.0 0.0 0.00 0.00 0.00 70 1019.5
20260901183722 65 331 0.0 0.0 0.00 0.00 0.00 71 1019.4
20260901183714 65 331 0.0 0.0 0.00 0.00 0.00 70 1019.4
20260901183458 66 331 0.0 0.0 0.00 0.00 0.00 70 1019.5
20260901183356 66 331 0.0 0.0 0.00 0.00 0.00 70 1019.5
20260901183256 66 331 0.0 0.0 0.00 0.00 0.00 70 1019.5
20260901183221 66 331 0.0 0.0 0.00 0.00 0.00 70 1019.4
20260901183213 66 331 0.0 0.0 0.00 0.00 0.00 70 1019.4
20260901182952 66 331 0.0 0.0 0.00 0.00 0.00 70 1019.4
20260901182852 66 331 0.0 0.0 0.00 0.00 0.00 70 1019.4
20260901182750 66 331 0.0 0.0 0.00 0.00 0.00 69 1019.4
20260901182648 66 331 0.0 0.0 0.00 0.00 0.00 69 1019.4
20260901182548 67 331 0.0 0.0 0.00 0.00 0.00 69 1019.4
20260901182501 67 331 0.0 0.0 0.00 0.00 0.00 69 1019.4
20260901182446 67 331 0.0 0.0 0.00 0.00 0.00 68 1019.4
20260901182346 67 331 0.0 0.0 0.00 0.00 0.00 68 1019.3
20260901182244 67 331 0.0 0.0 0.00 0.00 0.00 69 1019.3
20260901182221 67 331 0.0 0.0 0.00 0.00 0.00 68 1019.3
20260901182213 67 331 0.0 0.0 0.00 0.00 0.00 68 1019.3
20260901181940 67 331 0.0 0.0 0.00 0.00 0.00 67 1019.3
20260901181840 67 331 0.0 0.9 0.00 0.00 0.00 67 1019.3
20260901181740 67 331 0.0 0.9 0.00 0.00 0.00 67 1019.2
20260901181640 67 331 0.0 0.9 0.00 0.00 0.00 67 1019.3
20260901181540 67 331 0.0 0.9 0.00 0.00 0.00 67 1019.2
20260901181501 67 331 0.0 0.9 0.00 0.00 0.00 67 1019.3
20260901181438 67 331 0.0 0.9 0.00 0.00 0.00 67 1019.3
20260901181339 68 331 0.0 0.9 0.00 0.00 0.00 67 1019.2
20260901181236 68 331 0.0 0.9 0.00 0.00 0.00 67 1019.2
20260901181225 68 331 0.0 0.9 0.00 0.00 0.00 66 1019.2
20260901181219 68 331 0.0 0.9 0.00 0.00 0.00 67 1019.2
20260901181211 68 331 0.0 0.9 0.00 0.00 0.00 67 1019.2
20260901180933 68 331 0.0 0.9 0.00 0.00 0.00 66 1019.2
20260901180832 68 331 0.0 0.9 0.00 0.00 0.00 66 1019.1
20260901180730 68 331 0.0 0.9 0.00 0.00 0.00 65 1019.1
20260901180633 68 331 0.0 0.9 0.00 0.00 0.00 65 1019.1
20260901180501 68 331 0.0 0.9 0.00 0.00 0.00 64 1019.1
20260901180429 68 331 0.0 0.9 0.00 0.00 0.00 64 1019.1
20260901180329 69 331 0.0 0.9 0.00 0.00 0.00 61 1019.1
20260901180231 69 331 0.0 0.9 0.00 0.00 0.00 61 1019.2
20260901180226 69 331 0.0 0.9 0.00 0.00 0.00 61 1019.1
20260901180220 69 331 0.0 0.9 0.00 0.00 0.00 61 1019.2
20260901180213 69 331 0.0 0.9 0.00 0.00 0.00 61 1019.2
20260901175929 69 331 0.0 0.9 0.00 0.00 0.00 61 1019.1
20260901175829 69 331 0.0 0.0 0.00 0.00 0.00 61 1019.1
20260901175729 69 331 0.0 0.0 0.00 0.00 0.00 61 1019.1
20260901175632 69 331 0.0 0.0 0.00 0.00 0.00 61 1019.1
20260901175501 69 331 0.0 0.0 0.00 0.00 0.00 61 1019.1
20260901175424 69 331 0.0 0.0 0.00 0.00 0.00 61 1019.1
20260901175324 69 331 0.0 0.0 0.00 0.00 0.00 61 1019.2
20260901175224 69 331 0.0 0.0 0.00 0.00 0.00 61 1019.1
20260901175125 69 331 0.0 0.0 0.00 0.00 0.00 62 1019.1
20260901175001 69 331 0.0 0.9 0.00 0.00 0.00 62 1019.1
20260901174918 69 331 0.0 0.9 0.00 0.00 0.00 62 1019.1
20260901174818 69 331 0.0 0.9 0.00 0.00 0.00 62 1019.1
20260901174718 70 331 0.0 0.9 0.00 0.00 0.00 61 1019.0
20260901174620 70 331 0.9 1.7 0.00 0.00 0.00 62 1019.0
20260901174501 70 331 0.9 1.7 0.00 0.00 0.00 62 1019.1
20260901174414 70 331 0.9 1.7 0.00 0.00 0.00 61 1019.0
20260901174314 70 331 0.9 1.7 0.00 0.00 0.00 61 1019.1
20260901174212 70 331 0.9 1.7 0.00 0.00 0.00 61 1019.1
20260901174113 70 331 0.9 1.7 0.00 0.00 0.00 61 1019.0
20260901174000 70 331 0.9 1.7 0.00 0.00 0.00 61 1019.1
20260901173904 70 331 0.9 1.7 0.00 0.00 0.00 61 1019.1
20260901173804 70 331 0.9 1.7 0.00 0.00 0.00 60 1019.0
20260901173702 70 331 0.9 1.7 0.00 0.00 0.00 60 1019.1
20260901173606 70 331 0.9 1.7 0.00 0.00 0.00 61 1019.1
20260901173501 70 331 0.9 1.7 0.00 0.00 0.00 61 1019.1
20260901173401 70 331 0.9 1.7 0.00 0.00 0.00 60 1019.0
20260901173301 70 331 0.9 1.7 0.00 0.00 0.00 60 1019.0
20260901173224 70 331 0.9 1.7 0.00 0.00 0.00 60 1019.1
20260901173220 70 331 0.9 1.7 0.00 0.00 0.00 60 1019.0
20260901173212 70 331 0.9 2.6 0.00 0.00 0.00 60 1019.0
20260901172901 71 331 0.9 2.6 0.00 0.00 0.00 60 1019.1
20260901172801 71 331 0.9 2.6 0.00 0.00 0.00 60 1019.0
20260901172701 71 331 0.9 2.6 0.00 0.00 0.00 60 1019.1
20260901172601 71 331 0.9 2.6 0.00 0.00 0.00 59 1019.0
20260901172501 71 331 0.9 2.6 0.00 0.00 0.00 59 1019.0
20260901172401 71 331 0.9 2.6 0.00 0.00 0.00 58 1019.0
20260901172304 71 331 0.9 2.6 0.00 0.00 0.00 58 1019.1
20260901172224 71 331 0.9 2.6 0.00 0.00 0.00 58 1019.0
20260901172220 71 331 0.9 2.6 0.00 0.00 0.00 59 1019.1
20260901172212 71 331 0.9 2.6 0.00 0.00 0.00 58 1019.0
20260901171901 71 331 0.9 2.6 0.00 0.00 0.00 58 1019.0
20260901171801 71 331 0.9 2.6 0.00 0.00 0.00 58 1019.0
20260901171700 71 331 0.9 2.6 0.00 0.00 0.00 57 1019.0
20260901171600 71 331 0.9 2.6 0.00 0.00 0.00 58 1019.0
20260901171504 71 331 0.9 2.6 0.00 0.00 0.00 57 1019.0
20260901171459 71 331 0.9 2.6 0.00 0.00 0.00 57 1019.0
20260901171357 71 332 0.9 2.6 0.00 0.00 0.00 58 1019.0
20260901171254 71 332 0.9 2.6 0.00 0.00 0.00 58 1019.0
20260901171152 71 332 0.9 2.6 0.00 0.00 0.00 57 1019.0
20260901171052 71 332 0.9 2.6 0.00 0.00 0.00 57 1019.0
20260901171000 71 332 0.9 2.6 0.00 0.00 0.00 57 1019.0
20260901170952 71 332 0.9 2.6 0.00 0.00 0.00 57 1019.0
20260901170851 71 332 0.9 2.6 0.00 0.00 0.00 57 1018.9
20260901170750 71 332 0.9 2.6 0.00 0.00 0.00 57 1018.9
20260901170650 71 332 1.7 2.6 0.00 0.00 0.00 56 1019.0
20260901170550 71 332 1.7 3.5 0.00 0.00 0.00 56 1019.0
20260901170502 71 332 1.7 3.5 0.00 0.00 0.00 56 1019.0
20260901170447 71 332 1.7 4.3 0.00 0.00 0.00 56 1019.0
20260901170348 71 333 1.7 4.3 0.00 0.00 0.00 55 1019.0
20260901170248 71 332 1.7 4.3 0.00 0.00 0.00 55 1019.0
20260901170148 71 332 1.7 4.3 0.00 0.00 0.00 55 1019.0
20260901170050 71 332 2.6 4.3 0.00 0.00 0.00 55 1019.0
20260901170001 71 333 2.6 4.3 0.00 0.00 0.00 55 1019.1
20260901165946 72 333 2.6 4.3 0.00 0.00 0.00 55 1019.1
20260901165846 72 333 2.6 4.3 0.00 0.00 0.00 54 1019.1
20260901165746 72 333 2.6 4.3 0.00 0.00 0.00 54 1019.0
20260901165646 72 333 2.6 4.3 0.00 0.00 0.00 54 1019.1
20260901165546 72 335 2.6 4.3 0.00 0.00 0.00 54 1019.1
20260901165501 72 338 1.7 4.3 0.00 0.00 0.00 54 1019.1
20260901165444 72 340 1.7 4.3 0.00 0.00 0.00 54 1019.1
20260901165344 72 323 1.7 4.3 0.00 0.00 0.00 54 1019.1
20260901165242 72 324 1.7 4.3 0.00 0.00 0.00 54 1019.1
20260901165140 72 324 1.7 4.3 0.00 0.00 0.00 54 1019.1
20260901165039 72 309 1.7 4.3 0.00 0.00 0.00 54 1019.1
20260901165001 72 309 1.7 4.3 0.00 0.00 0.00 54 1019.1
20260901164940 72 309 1.7 4.3 0.00 0.00 0.00 54 1019.1
20260901164840 72 294 1.7 4.3 0.00 0.00 0.00 54 1019.1
20260901164740 72 315 1.7 4.3 0.00 0.00 0.00 54 1019.2
20260901164730 72 317 1.7 4.3 0.00 0.00 0.00 55 1019.1
20260901164723 72 318 1.7 4.3 0.00 0.00 0.00 54 1019.1
20260901164719 72 317 1.7 4.3 0.00 0.00 0.00 54 1019.1
20260901164436 72 317 1.7 4.3 0.00 0.00 0.00 55 1019.1
20260901164335 72 317 1.7 4.3 0.00 0.00 0.00 55 1019.1
20260901164234 72 317 1.7 4.3 0.00 0.00 0.00 55 1019.1
20260901164132 72 317 1.7 4.3 0.00 0.00 0.00 55 1019.1
20260901164033 72 322 1.7 4.3 0.00 0.00 0.00 55 1019.1
20260901163958 72 323 1.7 4.3 0.00 0.00 0.00 55 1019.1
20260901163930 72 324 1.7 4.3 0.00 0.00 0.00 55 1019.1
20260901163829 72 324 1.7 4.3 0.00 0.00 0.00 55 1019.1
20260901163729 72 324 1.7 4.3 0.00 0.00 0.00 55 1019.1
20260901163629 72 318 1.7 4.3 0.00 0.00 0.00 54 1019.1
20260901163528 72 319 1.7 4.3 0.00 0.00 0.00 54 1019.1
20260901163452 72 304 2.6 4.3 0.00 0.00 0.00 54 1019.1
20260901163428 72 304 2.6 4.3 0.00 0.00 0.00 55 1019.1
20260901163328 72 316 2.6 4.3 0.00 0.00 0.00 54 1019.1
20260901163228 72 330 2.6 4.3 0.00 0.00 0.00 54 1019.1
20260901163128 72 331 2.6 4.3 0.00 0.00 0.00 53 1019.1
20260901163022 72 331 2.6 4.3 0.00 0.00 0.00 54 1019.1
20260901162922 72 331 2.6 4.3 0.00 0.00 0.00 54 1019.1
20260901162822 72 327 2.6 4.3 0.00 0.00 0.00 54 1019.1
20260901162722 72 327 2.6 4.3 0.00 0.00 0.00 55 1019.1
20260901162622 72 327 2.6 4.3 0.00 0.00 0.00 55 1019.2
20260901162520 72 313 2.6 4.3 0.00 0.00 0.00 54 1019.2
20260901162452 72 318 1.7 4.3 0.00 0.00 0.00 54 1019.2
20260901162420 72 328 1.7 3.5 0.00 0.00 0.00 55 1019.1
20260901162320 72 321 2.6 3.5 0.00 0.00 0.00 54 1019.1
20260901162218 72 330 2.6 3.5 0.00 0.00 0.00 54 1019.1
20260901162116 72 330 2.6 3.5 0.00 0.00 0.00 54 1019.1
20260901162010 72 329 1.7 3.5 0.00 0.00 0.00 54 1019.2
20260901161952 72 327 1.7 3.5 0.00 0.00 0.00 54 1019.2
20260901161910 72 327 1.7 3.5 0.00 0.00 0.00 54 1019.1
20260901161809 72 327 2.6 3.5 0.00 0.00 0.00 53 1019.1
20260901161710 72 327 2.6 4.3 0.00 0.00 0.00 53 1019.1
20260901161609 72 327 2.6 5.2 0.00 0.00 0.00 53 1019.1
20260901161506 72 327 2.6 5.2 0.00 0.00 0.00 53 1019.1
20260901161450 72 327 2.6 5.2 0.00 0.00 0.00 53 1019.1
20260901161404 72 327 2.6 5.2 0.00 0.00 0.00 54 1019.1
20260901161307 72 327 2.6 5.2 0.00 0.00 0.00 54 1019.1
20260901161204 73 309 2.6 5.2 0.00 0.00 0.00 53 1019.1
20260901161104 73 308 2.6 5.2 0.00 0.00 0.00 53 1019.1
20260901161002 73 308 2.6 5.2 0.00 0.00 0.00 54 1019.1
20260901160947 73 308 2.6 5.2 0.00 0.00 0.00 54 1019.1
20260901160902 73 346 2.6 5.2 0.00 0.00 0.00 54 1019.1
20260901160802 73 346 2.6 5.2 0.00 0.00 0.00 54 1019.0
20260901160659 73 330 2.6 5.2 0.00 0.00 0.00 53 1019.0
20260901160557 73 330 2.6 5.2 0.00 0.00 0.00 53 1019.1
20260901160452 73 331 2.6 5.2 0.00 0.00 0.00 54 1019.0
20260901160446 73 332 2.6 5.2 0.00 0.00 0.00 53 1019.0
20260901160352 73 332 3.5 6.1 0.00 0.00 0.00 53 1019.1
20260901160252 73 336 3.5 6.1 0.00 0.00 0.00 53 1019.0
20260901160152 73 313 3.5 6.1 0.00 0.00 0.00 53 1019.0
20260901160052 73 340 3.5 6.1 0.00 0.00 0.00 53 1019.0
20260901155950 73 300 3.5 7.0 0.00 0.00 0.00 52 1019.0
20260901155946 73 322 3.5 7.0 0.00 0.00 0.00 52 1019.0
20260901155848 73 306 3.5 7.0 0.00 0.00 0.00 52 1019.0
20260901155748 73 312 3.5 7.8 0.00 0.00 0.00 52 1019.0
20260901155648 73 326 3.5 7.8 0.00 0.00 0.00 52 1019.0
20260901155546 73 298 3.5 7.8 0.00 0.00 0.00 51 1019.0
20260901155446 73 309 3.5 7.8 0.00 0.00 0.00 52 1019.0
20260901155344 73 327 3.5 7.8 0.00 0.00 0.00 52 1019.0
20260901155244 73 309 3.5 7.8 0.00 0.00 0.00 52 1019.0
20260901155142 73 336 3.5 7.8 0.00 0.00 0.00 51 1019.0
20260901155040 73 323 4.3 7.8 0.00 0.00 0.00 52 1019.0
20260901154944 73 329 4.3 7.8 0.00 0.00 0.00 51 1019.0
20260901154934 73 338 4.3 7.8 0.00 0.00 0.00 51 1019.0
20260901154834 74 335 3.5 7.8 0.00 0.00 0.00 52 1019.0
20260901154734 74 336 3.5 7.8 0.00 0.00 0.00 52 1019.0
20260901154634 74 350 3.5 7.8 0.00 0.00 0.00 51 1019.0
20260901154533 74 351 3.5 7.8 0.00 0.00 0.00 50 1019.0
20260901154443 74 339 3.5 7.8 0.00 0.00 0.00 50 1018.9
20260901154430 74 340 3.5 7.8 0.00 0.00 0.00 50 1018.9
20260901154330 74 339 3.5 7.8 0.00 0.00 0.00 50 1018.9
20260901154230 74 350 3.5 7.8 0.00 0.00 0.00 51 1018.9
20260901154130 74 355 3.5 7.8 0.00 0.00 0.00 50 1019.0
20260901154030 74 339 3.5 7.8 0.00 0.00 0.00 51 1018.9
20260901153944 74 333 2.6 7.8 0.00 0.00 0.00 51 1019.0
20260901153930 74 351 2.6 7.8 0.00 0.00 0.00 51 1019.0
20260901153830 74 298 3.5 7.8 0.00 0.00 0.00 51 1019.0
20260901153729 74 298 3.5 7.8 0.00 0.00 0.00 51 1019.0
20260901153629 74 331 3.5 7.8 0.00 0.00 0.00 51 1019.0
20260901153529 74 340 3.5 7.8 0.00 0.00 0.00 52 1019.0
20260901153443 74 311 2.6 7.0 0.00 0.00 0.00 51 1019.0
20260901153429 74 321 2.6 7.0 0.00 0.00 0.00 51 1019.0
20260901153329 74 296 2.6 7.0 0.00 0.00 0.00 51 1019.0
20260901153229 74 306 2.6 7.0 0.00 0.00 0.00 50 1019.0
20260901153210 74 333 2.6 7.0 0.00 0.00 0.00 50 1019.0
20260901153203 74 317 2.6 7.0 0.00 0.00 0.00 50 1019.0
20260901153159 74 333 2.6 7.0 0.00 0.00 0.00 51 1019.0
20260901152929 74 340 2.6 7.0 0.00 0.00 0.00 50 1019.0
20260901152829 74 339 2.6 7.0 0.00 0.00 0.00 50 1019.0
20260901152728 74 336 2.6 7.0 0.00 0.00 0.00 51 1019.0
20260901152628 74 323 2.6 6.1 0.00 0.00 0.00 51 1019.0
20260901152527 74 327 2.6 6.1 0.00 0.00 0.00 51 1019.0
20260901152427 74 327 2.6 6.1 0.00 0.00 0.00 51 1019.0
20260901152327 74 305 2.6 7.0 0.00 0.00 0.00 52 1019.0
20260901152224 74 310 2.6 7.0 0.00 0.00 0.00 53 1019.0
20260901152125 74 296 2.6 7.0 0.00 0.00 0.00 53 1019.0
20260901152022 74 314 2.6 7.0 0.00 0.00 0.00 51 1019.0
20260901151944 74 315 3.5 7.0 0.00 0.00 0.00 51 1019.0
20260901151922 74 328 3.5 7.0 0.00 0.00 0.00 52 1019.0
20260901151821 74 319 3.5 8.7 0.00 0.00 0.00 50 1019.0
20260901151717 74 335 3.5 8.7 0.00 0.00 0.00 51 1019.0
20260901151616 74 341 3.5 8.7 0.00 0.00 0.00 50 1019.0
20260901151516 74 344 3.5 8.7 0.00 0.00 0.00 51 1019.0
20260901151444 74 20 3.5 8.7 0.00 0.00 0.00 51 1019.0
20260901151415 74 19 3.5 8.7 0.00 0.00 0.00 51 1019.0
20260901151315 74 24 3.5 8.7 0.00 0.00 0.00 52 1019.0
20260901151211 74 5 3.5 8.7 0.00 0.00 0.00 50 1019.0
20260901151110 74 331 3.5 8.7 0.00 0.00 0.00 51 1019.0
20260901151010 74 331 3.5 8.7 0.00 0.00 0.00 52 1019.1
20260901150944 74 11 3.5 8.7 0.00 0.00 0.00 52 1019.1
20260901150908 74 333 3.5 7.0 0.00 0.00 0.00 51 1019.0
20260901150808 74 5 4.3 7.8 0.00 0.00 0.00 53 1019.0
20260901150714 75 321 4.3 7.8 0.00 0.00 0.00 50 1019.1
20260901150708 74 320 4.3 7.8 0.00 0.00 0.00 51 1019.0
20260901150704 74 320 4.3 7.8 0.00 0.00 0.00 51 1019.1
20260901150701 75 321 4.3 7.8 0.00 0.00 0.00 51 1019.1
20260901150409 75 344 4.3 7.8 0.00 0.00 0.00 49 1019.0
20260901150308 75 338 4.3 7.8 0.00 0.00 0.00 50 1019.0
20260901150209 75 325 4.3 7.8 0.00 0.00 0.00 51 1019.1
20260901150201 75 301 4.3 8.7 0.00 0.00 0.00 51 1019.1
20260901150157 75 315 4.3 8.7 0.00 0.00 0.00 51 1019.1
20260901150153 75 317 4.3 8.7 0.00 0.00 0.00 51 1019.1
20260901145908 75 319 4.3 8.7 0.00 0.00 0.00 51 1019.1
20260901145807 75 336 3.5 8.7 0.00 0.00 0.00 51 1019.1
20260901145707 75 325 3.5 8.7 0.00 0.00 0.00 51 1019.1
20260901145606 75 325 3.5 8.7 0.00 0.00 0.00 52 1019.0
20260901145506 75 325 3.5 8.7 0.00 0.00 0.00 51 1019.1
20260901145438 75 306 3.5 8.7 0.00 0.00 0.00 50 1019.1
20260901145406 75 355 3.5 8.7 0.00 0.00 0.00 49 1019.0
20260901145307 75 319 3.5 8.7 0.00 0.00 0.00 49 1019.1
20260901145204 75 331 3.5 8.7 0.00 0.00 0.00 50 1019.1
20260901145200 75 284 3.5 7.8 0.00 0.00 0.00 49 1019.0
20260901145155 75 312 3.5 7.8 0.00 0.00 0.00 49 1019.0
20260901145151 75 314 3.5 7.8 0.00 0.00 0.00 49 1019.0
20260901144904 75 272 3.5 7.8 0.00 0.00 0.00 49 1019.0
20260901144803 75 303 3.5 7.8 0.00 0.00 0.00 49 1019.1
20260901144703 75 330 3.5 7.8 0.00 0.00 0.00 48 1019.0
20260901144603 76 306 3.5 7.8 0.00 0.00 0.00 50 1019.1
20260901144501 76 323 3.5 7.8 0.00 0.00 0.00 50 1019.0
20260901144436 76 291 3.5 7.8 0.00 0.00 0.00 50 1019.0
20260901144401 76 290 3.5 7.8 0.00 0.00 0.00 49 1019.0
20260901144301 76 284 3.5 7.8 0.00 0.00 0.00 50 1019.0
20260901144202 76 271 3.5 7.8 0.00 0.00 0.00 49 1019.0
20260901144101 76 299 3.5 7.8 0.00 0.00 0.00 49 1019.0
20260901144001 76 302 4.3 7.8 0.00 0.00 0.00 48 1019.0
20260901143936 76 309 4.3 7.8 0.00 0.00 0.00 48 1019.0
20260901143901 76 319 4.3 7.8 0.00 0.00 0.00 48 1019.0
20260901143801 76 297 4.3 7.8 0.00 0.00 0.00 48 1019.0
20260901143701 76 315 4.3 7.8 0.00 0.00 0.00 47 1019.0
20260901143601 77 355 4.3 7.8 0.00 0.00 0.00 47 1019.1
20260901143502 77 317 4.3 7.8 0.00 0.00 0.00 47 1019.0
20260901143435 77 306 4.3 7.8 0.00 0.00 0.00 47 1019.0
20260901143401 77 271 4.3 7.0 0.00 0.00 0.00 47 1019.1
20260901143301 77 237 4.3 7.8 0.00 0.00 0.00 47 1019.1
20260901143201 77 233 4.3 7.8 0.00 0.00 0.00 47 1019.1
20260901143101 77 250 4.3 7.8 0.00 0.00 0.00 47 1019.1
20260901143001 77 263 3.5 7.8 0.00 0.00 0.00 47 1019.0
20260901142934 77 268 3.5 7.8 0.00 0.00 0.00 47 1019.0
20260901142900 77 281 3.5 7.8 0.00 0.00 0.00 46 1019.0
20260901142800 77 282 3.5 7.8 0.00 0.00 0.00 46 1019.0
20260901142701 77 265 3.5 7.8 0.00 0.00 0.00 47 1019.0
20260901142601 77 256 3.5 7.8 0.00 0.00 0.00 47 1019.0
20260901142501 77 246 3.5 7.8 0.00 0.00 0.00 47 1019.0
20260901142432 77 305 3.5 7.8 0.00 0.00 0.00 48 1019.0
20260901142401 77 262 3.5 7.8 0.00 0.00 0.00 48 1019.0
20260901142301 77 235 2.6 7.0 0.00 0.00 0.00 48 1019.0
20260901142205 77 342 2.6 7.0 0.00 0.00 0.00 48 1019.0
20260901142201 77 326 2.6 7.0 0.00 0.00 0.00 47 1019.0
20260901142151 77 311 2.6 7.0 0.00 0.00 0.00 47 1019.0
20260901142147 77 327 2.6 7.0 0.00 0.00 0.00 47 1019.0
20260901141900 77 326 2.6 7.0 0.00 0.00 0.00 48 1019.0
20260901141800 77 321 2.6 7.0 0.00 0.00 0.00 48 1019.0
20260901141658 76 313 2.6 7.0 0.00 0.00 0.00 47 1019.0
20260901141553 76 18 2.6 6.1 0.00 0.00 0.00 47 1019.0
20260901141451 76 321 2.6 6.1 0.00 0.00 0.00 49 1019.0
20260901141434 76 317 2.6 6.1 0.00 0.00 0.00 48 1019.0
20260901141349 76 260 2.6 6.1 0.00 0.00 0.00 48 1019.1
20260901141249 76 260 2.6 6.1 0.00 0.00 0.00 48 1019.0
20260901141149 76 247 2.6 6.1 0.00 0.00 0.00 49 1019.1
20260901141044 76 250 2.6 6.1 0.00 0.00 0.00 48 1019.1
20260901140934 76 288 2.6 6.1 0.00 0.00 0.00 49 1019.1
20260901140844 76 268 2.6 6.1 0.00 0.00 0.00 49 1019.1
20260901140744 76 306 2.6 5.2 0.00 0.00 0.00 48 1019.1
20260901140644 76 303 2.6 6.1 0.00 0.00 0.00 50 1019.1
20260901140544 76 278 2.6 6.1 0.00 0.00 0.00 50 1019.1
20260901140431 76 281 2.6 6.1 0.00 0.00 0.00 49 1019.1
20260901140343 76 248 2.6 6.1 0.00 0.00 0.00 49 1019.1
20260901140243 76 318 3.5 6.1 0.00 0.00 0.00 50 1019.1
20260901140144 76 317 3.5 7.8 0.00 0.00 0.00 49 1019.1
20260901140044 76 284 3.5 7.8 0.00 0.00 0.00 48 1019.1
20260901135932 76 284 3.5 7.8 0.00 0.00 0.00 48 1019.1
20260901135839 76 283 4.3 7.8 0.00 0.00 0.00 49 1019.1
20260901135739 76 268 3.5 7.8 0.00 0.00 0.00 50 1019.1
20260901135639 76 277 3.5 7.8 0.00 0.00 0.00 50 1019.1
20260901135540 76 306 3.5 7.8 0.00 0.00 0.00 50 1019.1
20260901135432 76 323 3.5 7.8 0.00 0.00 0.00 50 1019.1
20260901135340 76 351 3.5 7.8 0.00 0.00 0.00 50 1019.1
20260901135240 76 329 3.5 7.8 0.00 0.00 0.00 49 1019.1
20260901135140 76 340 3.5 7.8 0.00 0.00 0.00 49 1019.1
20260901135040 75 297 3.5 7.0 0.00 0.00 0.00 50 1019.1
20260901134940 75 308 3.5 7.0 0.00 0.00 0.00 51 1019.1
20260901134931 75 312 3.5 7.0 0.00 0.00 0.00 51 1019.1
20260901134839 75 331 3.5 7.8 0.00 0.00 0.00 51 1019.1
20260901134740 75 296 4.3 7.8 0.00 0.00 0.00 52 1019.1
20260901134639 75 302 3.5 7.8 0.00 0.00 0.00 50 1019.1
20260901134539 75 324 3.5 7.8 0.00 0.00 0.00 51 1019.1
20260901134439 75 337 4.3 7.8 0.00 0.00 0.00 52 1019.1
20260901134432 75 328 4.3 7.8 0.00 0.00 0.00 52 1019.1
20260901134340 75 5 4.3 7.8 0.00 0.00 0.00 51 1019.1
20260901134240 75 355 4.3 7.8 0.00 0.00 0.00 51 1019.1
20260901134140 75 306 4.3 8.7 0.00 0.00 0.00 52 1019.2
20260901134040 75 315 5.2 8.7 0.00 0.00 0.00 51 1019.2
20260901133939 75 5 5.2 8.7 0.00 0.00 0.00 52 1019.2
20260901133931 75 337 5.2 8.7 0.00 0.00 0.00 52 1019.2
20260901133839 75 349 4.3 8.7 0.00 0.00 0.00 55 1019.2
20260901133739 75 17 5.2 8.7 0.00 0.00 0.00 55 1019.2
20260901133639 75 319 5.2 8.7 0.00 0.00 0.00 52 1019.3
20260901133540 74 333 5.2 8.7 0.00 0.00 0.00 53 1019.3
20260901133438 74 292 5.2 8.7 0.00 0.00 0.00 53 1019.2
20260901133430 74 334 5.2 8.7 0.00 0.00 0.00 52 1019.2
20260901133337 74 309 5.2 8.7 0.00 0.00 0.00 53 1019.3
20260901133238 74 345 5.2 8.7 0.00 0.00 0.00 53 1019.3
20260901133138 74 343 5.2 8.7 0.00 0.00 0.00 53 1019.3
20260901133038 74 317 4.3 8.7 0.00 0.00 0.00 54 1019.3
20260901132938 74 337 4.3 8.7 0.00 0.00 0.00 53 1019.3
20260901132929 74 323 4.3 8.7 0.00 0.00 0.00 53 1019.3
20260901132838 74 309 4.3 8.7 0.00 0.00 0.00 55 1019.3
20260901132738 74 336 4.3 8.7 0.00 0.00 0.00 55 1019.3
20260901132637 73 0 4.3 8.7 0.00 0.00 0.00 55 1019.3
20260901132537 73 346 4.3 8.7 0.00 0.00 0.00 53 1019.3
20260901132437 73 313 4.3 8.7 0.00 0.00 0.00 54 1019.3
20260901132430 73 323 4.3 8.7 0.00 0.00 0.00 54 1019.3
20260901132337 73 294 4.3 8.7 0.00 0.00 0.00 54 1019.4
20260901132237 73 275 4.3 8.7 0.00 0.00 0.00 54 1019.4
20260901132138 73 315 3.5 7.8 0.00 0.00 0.00 54 1019.3
20260901132034 73 5 4.3 7.8 0.00 0.00 0.00 53 1019.4
20260901131929 73 316 4.3 7.8 0.00 0.00 0.00 53 1019.4
20260901131834 73 270 4.3 7.8 0.00 0.00 0.00 53 1019.4
20260901131734 73 268 4.3 7.8 0.00 0.00 0.00 54 1019.4
20260901131633 73 309 4.3 7.8 0.00 0.00 0.00 53 1019.5
20260901131533 73 305 4.3 9.6 0.00 0.00 0.00 53 1019.4
20260901131433 73 288 4.3 9.6 0.00 0.00 0.00 53 1019.4
20260901131429 73 289 4.3 9.6 0.00 0.00 0.00 53 1019.4
20260901131333 73 261 5.2 9.6 0.00 0.00 0.00 53 1019.5
20260901131233 73 237 5.2 9.6 0.00 0.00 0.00 53 1019.4
20260901131152 73 301 5.2 10.4 0.00 0.00 0.00 53 1019.5
20260901131148 73 281 5.2 10.4 0.00 0.00 0.00 53 1019.4
20260901131144 73 296 5.2 10.4 0.00 0.00 0.00 53 1019.5
20260901131140 73 266 5.2 10.4 0.00 0.00 0.00 53 1019.5
20260901130834 74 265 5.2 10.4 0.00 0.00 0.00 53 1019.5
20260901130734 74 268 5.2 10.4 0.00 0.00 0.00 52 1019.5
20260901130634 74 254 5.2 10.4 0.00 0.00 0.00 52 1019.5
20260901130533 74 277 5.2 10.4 0.00 0.00 0.00 52 1019.5
20260901130433 74 264 5.2 10.4 0.00 0.00 0.00 52 1019.7
20260901130429 74 267 5.2 10.4 0.00 0.00 0.00 52 1019.7
20260901130334 74 278 5.2 10.4 0.00 0.00 0.00 51 1019.5
20260901130234 74 262 5.2 10.4 0.00 0.00 0.00 52 1019.7
20260901130129 74 264 4.3 9.6 0.00 0.00 0.00 52 1019.7
20260901130029 74 236 4.3 9.6 0.00 0.00 0.00 51 1019.7
20260901125929 74 250 4.3 9.6 0.00 0.00 0.00 52 1019.7
20260901125829 74 213 3.5 9.6 0.00 0.00 0.00 52 1019.7
20260901125729 74 255 4.3 9.6 0.00 0.00 0.00 52 1019.5
20260901125629 74 258 4.3 9.6 0.00 0.00 0.00 52 1019.7
20260901125529 74 273 4.3 9.6 0.00 0.00 0.00 52 1019.7
20260901125429 74 262 4.3 9.6 0.00 0.00 0.00 51 1019.7
20260901125329 74 202 4.3 9.6 0.00 0.00 0.00 52 1019.7
20260901125230 74 207 3.5 9.6 0.00 0.00 0.00 52 1019.8
20260901125148 74 140 4.3 8.7 0.00 0.00 0.00 50 1019.7
20260901125144 74 139 4.3 9.6 0.00 0.00 0.00 50 1019.7
20260901125140 74 236 4.3 9.6 0.00 0.00 0.00 50 1019.7
20260901124829 74 233 4.3 9.6 0.00 0.00 0.00 51 1019.8
20260901124729 74 254 4.3 9.6 0.00 0.00 0.00 53 1019.7
20260901124629 74 249 4.3 9.6 0.00 0.00 0.00 53 1019.8
20260901124529 74 227 5.2 9.6 0.00 0.00 0.00 51 1019.7
20260901124429 74 235 5.2 9.6 0.00 0.00 0.00 52 1019.8
20260901124329 74 259 5.2 9.6 0.00 0.00 0.00 51 1019.7
20260901124229 74 215 4.3 9.6 0.00 0.00 0.00 52 1019.7
20260901124148 74 212 4.3 9.6 0.00 0.00 0.00 53 1019.8
20260901124144 74 267 5.2 8.7 0.00 0.00 0.00 52 1019.7
20260901124140 74 256 5.2 8.7 0.00 0.00 0.00 52 1019.7
20260901123829 74 246 4.3 8.7 0.00 0.00 0.00 52 1019.7
20260901123729 73 291 4.3 8.7 0.00 0.00 0.00 52 1019.7
20260901123629 73 266 4.3 8.7 0.00 0.00 0.00 55 1019.7
20260901123529 73 270 3.5 8.7 0.00 0.00 0.00 54 1019.7
20260901123429 73 249 4.3 8.7 0.00 0.00 0.00 53 1019.7
20260901123329 73 250 4.3 9.6 0.00 0.00 0.00 53 1019.7
20260901123229 73 263 4.3 9.6 0.00 0.00 0.00 54 1019.8
20260901123129 73 240 4.3 9.6 0.00 0.00 0.00 54 1019.7
20260901123029 73 292 4.3 9.6 0.00 0.00 0.00 54 1019.7
20260901122929 73 265 4.3 9.6 0.00 0.00 0.00 53 1019.7
20260901122830 73 296 4.3 9.6 0.00 0.00 0.00 53 1019.8
20260901122729 73 197 4.3 9.6 0.00 0.00 0.00 54 1019.8
20260901122629 73 257 4.3 9.6 0.00 0.00 0.00 53 1019.8
20260901122529 73 259 4.3 9.6 0.00 0.00 0.00 55 1019.8
20260901122429 73 220 4.3 9.6 0.00 0.00 0.00 56 1019.8
20260901122329 73 232 4.3 8.7 0.00 0.00 0.00 56 1019.8
20260901122229 72 222 4.3 8.7 0.00 0.00 0.00 55 1019.9
20260901122148 72 257 4.3 7.8 0.00 0.00 0.00 56 1019.8
20260901122144 72 265 4.3 7.8 0.00 0.00 0.00 56 1019.8
20260901122140 72 248 4.3 7.8 0.00 0.00 0.00 56 1019.8
20260901121829 72 250 4.3 7.8 0.00 0.00 0.00 56 1019.9
20260901121729 72 229 4.3 7.0 0.00 0.00 0.00 56 1019.8
20260901121629 72 239 4.3 7.0 0.00 0.00 0.00 56 1019.8
20260901121530 72 254 4.3 7.0 0.00 0.00 0.00 56 1019.9
20260901121429 72 233 4.3 8.7 0.00 0.00 0.00 55 1019.8
20260901121330 72 230 4.3 8.7 0.00 0.00 0.00 55 1019.9
20260901121229 72 238 4.3 8.7 0.00 0.00 0.00 57 1019.9
20260901121129 72 244 5.2 8.7 0.00 0.00 0.00 58 1019.9
20260901121029 71 268 5.2 8.7 0.00 0.00 0.00 56 1019.9
20260901120929 71 276 5.2 8.7 0.00 0.00 0.00 57 1019.9
20260901120920 71 290 6.1 9.6 0.00 0.00 0.00 55 1019.9
20260901120912 71 227 5.2 8.7 0.00 0.00 0.00 57 1019.9
20260901120908 71 293 6.1 8.7 0.00 0.00 0.00 56 1019.9
20260901120649 71 269 6.1 8.7 0.00 0.00 0.00 55 1019.9
20260901120645 71 273 6.1 9.6 0.00 0.00 0.00 55 1019.9
20260901120641 71 290 6.1 9.6 0.00 0.00 0.00 55 1019.9
20260901120329 71 250 6.1 9.6 0.00 0.00 0.00 54 1019.9
20260901120229 71 257 6.1 9.6 0.00 0.00 0.00 54 1019.9
20260901120129 71 278 6.1 9.6 0.00 0.00 0.00 54 1019.9
20260901120030 71 267 6.1 9.6 0.00 0.00 0.00 53 1019.8
20260901115929 71 279 6.1 9.6 0.00 0.00 0.00 53 1019.9
20260901115829 71 284 6.1 9.6 0.00 0.00 0.00 53 1019.8
20260901115729 71 271 6.1 9.6 0.00 0.00 0.00 53 1019.8
20260901115629 72 286 6.1 9.6 0.00 0.00 0.00 54 1019.8
20260901115529 72 275 6.1 9.6 0.00 0.00 0.00 54 1019.9
20260901115428 72 257 6.1 10.4 0.00 0.00 0.00 54 1019.9
20260901115329 72 262 6.1 10.4 0.00 0.00 0.00 53 1019.9
20260901115228 72 231 6.1 10.4 0.00 0.00 0.00 53 1019.9
20260901115128 72 257 5.2 10.4 0.00 0.00 0.00 54 1020.0
20260901115028 72 272 5.2 10.4 0.00 0.00 0.00 55 1019.9
20260901114928 72 304 5.2 10.4 0.00 0.00 0.00 53 1019.9
20260901114916 72 203 4.3 7.8 0.00 0.00 0.00 56 1020.0
20260901114906 72 279 6.1 10.4 0.00 0.00 0.00 54 1020.0
20260901114902 72 263 5.2 10.4 0.00 0.00 0.00 54 1020.0
20260901114645 72 263 5.2 10.4 0.00 0.00 0.00 54 1020.0
20260901114641 72 244 5.2 10.4 0.00 0.00 0.00 54 1020.0
20260901114632 72 267 4.3 8.7 0.00 0.00 0.00 56 1020.0
20260901114411 72 265 4.3 8.7 0.00 0.00 0.00 55 1020.0
20260901114407 72 198 4.3 8.7 0.00 0.00 0.00 56 1020.0
20260901114148 72 259 4.3 8.7 0.00 0.00 0.00 56 1020.0
20260901114144 72 213 4.3 8.7 0.00 0.00 0.00 58 1020.0
20260901114139 72 203 4.3 7.8 0.00 0.00 0.00 56 1020.0
20260901113833 72 218 4.3 7.8 0.00 0.00 0.00 57 1020.0
20260901113729 72 227 4.3 7.0 0.00 0.00 0.00 56 1020.0
20260901113629 72 255 4.3 7.0 0.00 0.00 0.00 57 1020.0